<- Previous Day | Today | Next Day ->

All Data for 02 December 2019

 

Time A - D Temp A - D Dew Point A - D Humidity A - D Pressure A - D Wind A - D Wind Dir Gust A - D Rain Rate A - D Rain Total
00:00 0.6 -2.6 79 1030.2 1.6 N 3.1 0.0 0.0
00:01 0.6 -2.6 79 1030.3 1.6 N 3.1 0.0 0.0
00:02 0.6 -2.6 79 1030.3 1.6 N 3.1 0.0 0.0
00:03 0.6 -2.6 79 1030.3 1.6 N 3.1 0.0 0.0
00:04 0.6 -2.6 79 1030.2 1.6 N 3.1 0.0 0.0
00:05 0.6 -2.6 79 1030.2 1.6 N 3.1 0.0 0.0
00:06 0.6 -2.6 79 1030.3 1.6 N 3.1 0.0 0.0
00:07 0.6 -2.6 79 1030.3 3.1 N 3.1 0.0 0.0
00:08 0.6 -2.6 79 1030.3 1.6 N 3.1 0.0 0.0
00:09 0.6 -2.6 79 1030.3 1.6 N 3.1 0.0 0.0
00:10 0.6 -2.6 79 1030.3 2.2 N 3.1 0.0 0.0
00:11 0.6 -2.6 79 1030.3 1.6 N 3.1 0.0 0.0
00:13 0.6 -2.6 79 1030.2 2.2 N 3.1 0.0 0.0
00:14 0.6 -2.4 80 1030.4 1.6 N 3.1 0.0 0.0
00:15 0.6 -2.6 79 1030.4 2.2 N 3.1 0.0 0.0
00:16 0.6 -2.6 79 1030.4 2.2 N 3.1 0.0 0.0
00:17 0.6 -2.6 79 1030.4 3.1 NE 3.1 0.0 0.0
00:18 0.6 -2.6 79 1030.3 2.2 NE 3.1 0.0 0.0
00:19 0.6 -2.4 80 1030.5 3.8 N 3.8 0.0 0.0
00:20 0.6 -2.6 79 1030.4 3.1 N 3.8 0.0 0.0
00:21 0.6 -2.4 80 1030.4 2.2 NE 3.8 0.0 0.0
00:22 0.6 -2.4 80 1030.3 2.2 NE 3.8 0.0 0.0
00:23 0.6 -2.4 80 1030.4 3.1 NE 3.8 0.0 0.0
00:24 0.6 -2.4 80 1030.4 2.2 NE 3.8 0.0 0.0
00:25 0.6 -2.4 80 1030.4 2.2 N 3.8 0.0 0.0
00:27 0.6 -2.4 80 1030.3 1.6 NNE 3.8 0.0 0.0
00:28 0.6 -2.4 80 1030.3 3.1 NE 3.8 0.0 0.0
00:29 0.6 -2.4 80 1030.5 2.2 N 3.8 0.0 0.0
00:30 0.7 -2.3 80 1030.3 3.1 N 3.8 0.0 0.0
00:31 0.7 -2.3 80 1030.3 3.1 N 3.8 0.0 0.0
00:32 0.7 -2.3 80 1030.5 2.2 NE 3.8 0.0 0.0
00:33 0.7 -2.3 80 1030.5 1.6 N 3.8 0.0 0.0
00:34 0.7 -2.3 80 1030.6 1.6 N 3.1 0.0 0.0
00:35 0.7 -2.3 80 1030.5 2.2 N 3.1 0.0 0.0
00:36 0.7 -2.3 80 1030.7 2.2 N 3.1 0.0 0.0
00:37 0.7 -2.3 80 1030.6 2.2 NE 3.1 0.0 0.0
00:38 0.7 -2.3 80 1030.5 1.6 N 3.1 0.0 0.0
00:39 0.7 -2.3 80 1030.6 1.6 N 3.1 0.0 0.0
00:40 0.7 -2.3 80 1030.5 1.6 N 3.1 0.0 0.0
00:42 0.7 -2.3 80 1030.7 1.6 N 2.2 0.0 0.0
00:43 0.7 -2.3 80 1030.6 1.6 N 2.2 0.0 0.0
00:44 0.7 -2.3 80 1030.7 2.2 N 2.2 0.0 0.0
00:45 0.7 -2.3 80 1030.7 2.2 N 2.2 0.0 0.0
00:46 0.7 -2.3 80 1030.6 2.2 NE 2.2 0.0 0.0
00:47 0.7 -2.3 80 1030.6 2.2 NE 2.2 0.0 0.0
00:48 0.7 -2.3 80 1030.5 2.2 N 2.2 0.0 0.0
00:49 0.7 -2.3 80 1030.6 1.6 NE 2.2 0.0 0.0
00:50 0.7 -2.3 80 1030.6 0.7 N 2.2 0.0 0.0
00:51 0.7 -2.3 80 1030.7 0.7 N 2.2 0.0 0.0
00:52 0.7 -2.3 80 1030.7 0.0 N 2.2 0.0 0.0
00:53 0.7 -2.3 80 1030.6 0.0 N 2.2 0.0 0.0
00:54 0.7 -2.3 80 1030.7 0.7 N 2.2 0.0 0.0
00:56 0.7 -2.3 80 1030.6 0.0 N 2.2 0.0 0.0
00:57 0.7 -2.3 80 1030.5 1.6 N 2.2 0.0 0.0
00:58 0.7 -2.3 80 1030.6 1.6 N 1.6 0.0 0.0
00:59 0.6 -2.4 80 1030.7 1.6 N 1.6 0.0 0.0
01:00 0.6 -2.4 80 1030.7 1.6 N 1.6 0.0 0.0
01:01 0.6 -2.4 80 1030.6 1.6 N 1.6 0.0 0.0
01:02 0.6 -2.4 80 1030.7 1.6 N 1.6 0.0 0.0
01:03 0.6 -2.4 80 1030.5 1.6 N 1.6 0.0 0.0
01:04 0.6 -2.4 80 1030.6 1.6 N 1.6 0.0 0.0
01:05 0.6 -2.4 80 1030.5 1.6 N 1.6 0.0 0.0
01:06 0.6 -2.4 80 1030.7 2.2 NE 2.2 0.0 0.0
01:07 0.6 -2.4 80 1030.6 3.1 NE 3.1 0.0 0.0
01:08 0.6 -2.4 80 1030.7 3.1 NE 3.1 0.0 0.0
01:09 0.6 -2.4 80 1030.6 2.2 NE 3.1 0.0 0.0
01:11 0.5 -2.5 80 1030.7 2.2 N 3.1 0.0 0.0
01:12 0.5 -2.5 80 1030.6 3.1 NE 3.1 0.0 0.0
01:13 0.5 -2.5 80 1030.6 3.1 NE 3.1 0.0 0.0
01:14 0.5 -2.5 80 1030.6 1.6 N 3.1 0.0 0.0
01:15 0.5 -2.5 80 1030.6 1.6 N 3.1 0.0 0.0
01:16 0.5 -2.5 80 1030.6 2.2 NE 3.1 0.0 0.0
01:17 0.5 -2.5 80 1030.7 2.2 N 3.1 0.0 0.0
01:18 0.5 -2.5 80 1030.6 2.2 NE 3.1 0.0 0.0
01:19 0.5 -2.5 80 1030.4 0.7 N 3.1 0.0 0.0
01:20 0.5 -2.5 80 1030.4 1.6 NE 3.1 0.0 0.0
01:21 0.5 -2.5 80 1030.6 0.7 N 3.1 0.0 0.0
01:22 0.5 -2.5 80 1030.5 1.6 N 3.1 0.0 0.0
01:23 0.5 -2.5 80 1030.5 1.6 N 2.2 0.0 0.0
01:24 0.5 -2.5 80 1030.6 2.2 N 2.2 0.0 0.0
01:26 0.5 -2.5 80 1030.5 1.6 N 2.2 0.0 0.0
01:27 0.5 -2.5 80 1030.7 1.6 N 2.2 0.0 0.0
01:28 0.5 -2.5 80 1030.5 1.6 N 2.2 0.0 0.0
01:29 0.5 -2.5 80 1030.5 1.6 N 2.2 0.0 0.0
01:30 0.6 -2.4 80 1030.8 1.6 N 2.2 0.0 0.0
01:31 0.6 -2.4 80 1030.7 1.6 N 2.2 0.0 0.0
01:32 0.6 -2.4 80 1030.8 1.6 N 2.2 0.0 0.0
01:33 0.6 -2.4 80 1030.8 0.7 N 2.2 0.0 0.0
01:34 0.5 -2.5 80 1030.8 0.7 N 2.2 0.0 0.0
01:35 0.5 -2.5 80 1030.8 0.7 N 1.6 0.0 0.0
01:36 0.5 -2.5 80 1030.9 1.6 N 1.6 0.0 0.0
01:37 0.5 -2.5 80 1030.7 1.6 N 1.6 0.0 0.0
01:39 0.5 -2.5 80 1030.7 1.6 N 2.2 0.0 0.0
01:40 0.5 -2.5 80 1030.8 1.6 N 2.2 0.0 0.0
01:41 0.5 -2.5 80 1030.8 1.6 N 2.2 0.0 0.0
01:42 0.5 -2.5 80 1030.7 1.6 N 2.2 0.0 0.0
01:43 0.5 -2.5 80 1030.7 1.6 N 2.2 0.0 0.0
01:44 0.5 -2.5 80 1030.8 1.6 N 2.2 0.0 0.0
01:45 0.5 -2.5 80 1030.8 2.2 N 2.2 0.0 0.0
01:46 0.5 -2.5 80 1030.7 2.2 NE 2.2 0.0 0.0
01:47 0.5 -2.5 80 1030.7 2.2 N 2.2 0.0 0.0
01:48 0.5 -2.5 80 1030.8 2.2 N 2.2 0.0 0.0
01:49 0.5 -2.5 80 1030.8 1.6 N 2.2 0.0 0.0
01:50 0.5 -2.5 80 1030.7 2.2 N 2.2 0.0 0.0
01:51 0.5 -2.5 80 1030.7 2.2 N 2.2 0.0 0.0
01:52 0.5 -2.5 80 1030.7 2.2 NE 2.2 0.0 0.0
01:54 0.5 -2.5 80 1030.9 2.2 N 2.2 0.0 0.0
01:55 0.5 -2.5 80 1030.9 1.6 N 2.2 0.0 0.0
01:56 0.5 -2.5 80 1030.8 1.6 N 2.2 0.0 0.0
01:57 0.5 -2.5 80 1030.9 2.2 N 2.2 0.0 0.0
01:58 0.5 -2.5 80 1030.8 2.2 NW 2.2 0.0 0.0
01:59 0.5 -2.5 80 1030.9 2.2 NW 2.2 0.0 0.0
02:00 0.5 -2.5 80 1030.9 3.1 N 3.1 0.0 0.0
02:01 0.5 -2.5 80 1030.9 3.1 N 3.1 0.0 0.0
02:02 0.5 -2.5 80 1030.9 3.1 N 3.1 0.0 0.0
02:03 0.5 -2.5 80 1030.9 3.1 N 3.1 0.0 0.0
02:04 0.5 -2.5 80 1030.9 3.1 N 3.1 0.0 0.0
02:05 0.5 -2.5 80 1030.8 3.1 N 3.1 0.0 0.0
02:06 0.5 -2.5 80 1030.7 3.1 N 3.1 0.0 0.0
02:08 0.5 -2.5 80 1031.0 1.6 N 3.1 0.0 0.0
02:09 0.5 -2.5 80 1030.9 1.6 N 3.1 0.0 0.0
02:10 0.5 -2.5 80 1030.9 1.6 N 3.1 0.0 0.0
02:11 0.5 -2.5 80 1030.9 1.6 N 3.1 0.0 0.0
02:12 0.5 -2.5 80 1030.7 1.6 N 3.1 0.0 0.0
02:13 0.5 -2.5 80 1030.7 2.2 NE 3.1 0.0 0.0
02:14 0.5 -2.5 80 1030.7 2.2 NE 3.1 0.0 0.0
02:15 0.5 -2.5 80 1030.7 2.2 NE 3.1 0.0 0.0
02:16 0.5 -2.5 80 1030.8 1.6 NE 3.1 0.0 0.0
02:17 0.5 -2.5 80 1030.7 1.6 N 3.1 0.0 0.0
02:18 0.5 -2.5 80 1030.7 1.6 N 2.2 0.0 0.0
02:19 0.5 -2.5 80 1030.9 1.6 NE 2.2 0.0 0.0
02:20 0.5 -2.5 80 1030.8 1.6 NE 2.2 0.0 0.0
02:22 0.5 -2.5 80 1030.7 1.6 N 2.2 0.0 0.0
02:23 0.5 -2.5 80 1030.9 1.6 NE 2.2 0.0 0.0
02:24 0.5 -2.5 80 1030.7 2.2 N 2.2 0.0 0.0
02:25 0.5 -2.5 80 1030.8 2.2 NE 2.2 0.0 0.0
02:26 0.4 -2.6 80 1030.9 2.2 NE 2.2 0.0 0.0
02:27 0.4 -2.6 80 1030.9 2.2 NNE 2.2 0.0 0.0
02:28 0.4 -2.6 80 1030.7 1.6 NE 2.2 0.0 0.0
02:29 0.4 -2.6 80 1030.8 1.6 N 2.2 0.0 0.0
02:30 0.4 -2.6 80 1030.9 2.2 NE 2.2 0.0 0.0
02:31 0.4 -2.6 80 1030.9 1.6 N 2.2 0.0 0.0
02:32 0.4 -2.6 80 1030.9 2.2 N 2.2 0.0 0.0
02:33 0.4 -2.6 80 1031.0 2.2 NE 2.2 0.0 0.0
02:35 0.3 -2.7 80 1031.0 2.2 NE 2.2 0.0 0.0
02:36 0.3 -2.7 80 1031.0 2.2 NE 2.2 0.0 0.0
02:37 0.3 -2.7 80 1031.2 1.6 N 2.2 0.0 0.0
02:38 0.3 -2.7 80 1031.0 2.2 NE 2.2 0.0 0.0
02:39 0.3 -2.7 80 1031.0 2.2 NE 2.2 0.0 0.0
02:40 0.3 -2.7 80 1031.1 2.2 NE 2.2 0.0 0.0
02:41 0.3 -2.7 80 1031.0 1.6 N 2.2 0.0 0.0
02:42 0.3 -2.7 80 1031.1 1.6 NE 2.2 0.0 0.0
02:43 0.3 -2.7 80 1031.0 1.6 NE 2.2 0.0 0.0
02:44 0.3 -2.7 80 1031.0 1.6 N 2.2 0.0 0.0
02:45 0.3 -2.7 80 1031.1 1.6 NE 2.2 0.0 0.0
02:46 0.3 -2.7 80 1031.2 1.6 N 2.2 0.0 0.0
02:47 0.3 -2.7 80 1031.2 0.7 N 2.2 0.0 0.0
02:49 0.3 -2.7 80 1031.0 0.7 N 2.2 0.0 0.0
02:50 0.3 -2.7 80 1031.0 0.7 N 1.6 0.0 0.0
02:51 0.3 -2.6 81 1030.9 0.7 N 1.6 0.0 0.0
02:52 0.3 -2.7 80 1031.0 1.6 N 1.6 0.0 0.0
02:53 0.3 -2.7 80 1031.1 1.6 N 1.6 0.0 0.0
02:54 0.3 -2.6 81 1030.9 1.6 N 1.6 0.0 0.0
02:55 0.3 -2.7 80 1031.0 1.6 N 1.6 0.0 0.0
02:56 0.3 -2.7 80 1031.0 1.6 NE 1.6 0.0 0.0
02:57 0.3 -2.7 80 1031.0 1.6 N 1.6 0.0 0.0
02:58 0.3 -2.6 81 1031.0 1.6 NE 1.6 0.0 0.0
02:59 0.3 -2.6 81 1030.9 1.6 N 1.6 0.0 0.0
03:00 0.3 -2.6 81 1030.9 0.7 N 1.6 0.0 0.0
03:01 0.3 -2.6 81 1030.9 1.6 N 1.6 0.0 0.0
03:02 0.3 -2.6 81 1030.9 1.6 N 1.6 0.0 0.0
03:03 0.3 -2.6 81 1031.0 1.6 N 1.6 0.0 0.0
03:04 0.3 -2.6 81 1031.1 1.6 N 1.6 0.0 0.0
03:06 0.3 -2.6 81 1031.1 1.6 N 1.6 0.0 0.0
03:07 0.3 -2.6 81 1030.9 1.6 N 1.6 0.0 0.0
03:08 0.3 -2.6 81 1031.1 2.2 N 2.2 0.0 0.0
03:09 0.3 -2.6 81 1031.1 2.2 N 2.2 0.0 0.0
03:10 0.3 -2.6 81 1031.0 1.6 N 2.2 0.0 0.0
03:11 0.3 -2.6 81 1030.9 1.6 N 2.2 0.0 0.0
03:12 0.3 -2.6 81 1031.1 2.2 N 2.2 0.0 0.0
03:13 0.3 -2.6 81 1031.0 2.2 NE 2.2 0.0 0.0
03:14 0.3 -2.6 81 1031.0 1.6 N 2.2 0.0 0.0
03:15 0.3 -2.6 81 1031.0 1.6 N 2.2 0.0 0.0
03:16 0.3 -2.6 81 1030.8 1.6 N 2.2 0.0 0.0
03:17 0.3 -2.6 81 1031.2 1.6 N 2.2 0.0 0.0
03:19 0.3 -2.6 81 1031.0 0.7 N 2.2 0.0 0.0
03:20 0.3 -2.6 81 1031.1 0.7 N 2.2 0.0 0.0
03:21 0.3 -2.6 81 1030.9 0.7 N 2.2 0.0 0.0
03:22 0.3 -2.6 81 1031.1 1.6 N 2.2 0.0 0.0
03:23 0.3 -2.6 81 1031.1 1.6 N 1.6 0.0 0.0
03:25 0.3 -2.6 81 1031.1 0.7 N 1.6 0.0 0.0
03:26 0.3 -2.6 81 1031.1 1.6 N 1.6 0.0 0.0
03:27 0.3 -2.6 81 1031.2 1.6 N 1.6 0.0 0.0
03:28 0.3 -2.6 81 1031.2 1.6 N 1.6 0.0 0.0
03:29 0.3 -2.6 81 1031.2 1.6 N 1.6 0.0 0.0
03:30 0.3 -2.6 81 1031.1 0.7 N 1.6 0.0 0.0
03:31 0.3 -2.6 81 1031.2 1.6 N 1.6 0.0 0.0
03:32 0.3 -2.6 81 1031.2 1.6 N 1.6 0.0 0.0
03:33 0.3 -2.6 81 1031.3 0.0 N 1.6 0.0 0.0
03:34 0.2 -2.7 81 1031.1 1.6 N 1.6 0.0 0.0
03:35 0.2 -2.7 81 1031.2 1.6 N 1.6 0.0 0.0
03:36 0.2 -2.7 81 1031.2 1.6 NE 1.6 0.0 0.0
03:37 0.2 -2.7 81 1031.2 1.6 NE 1.6 0.0 0.0
03:39 0.2 -2.7 81 1031.1 1.6 NNE 1.6 0.0 0.0
03:40 0.2 -2.7 81 1031.1 1.6 N 1.6 0.0 0.0
03:41 0.2 -2.7 81 1031.2 1.6 N 1.6 0.0 0.0
03:42 0.2 -2.7 81 1031.1 1.6 N 1.6 0.0 0.0
03:43 0.2 -2.7 81 1031.1 1.6 N 1.6 0.0 0.0
03:44 0.2 -2.7 81 1031.1 1.6 N 1.6 0.0 0.0
03:45 0.2 -2.7 81 1031.2 1.6 N 1.6 0.0 0.0
03:46 0.3 -2.6 81 1031.3 2.2 N 2.2 0.0 0.0
03:47 0.3 -2.6 81 1031.1 2.2 N 2.2 0.0 0.0
03:48 0.3 -2.6 81 1031.3 2.2 NW 2.2 0.0 0.0
03:49 0.3 -2.6 81 1031.2 1.6 N 2.2 0.0 0.0
03:50 0.3 -2.6 81 1031.2 1.6 N 2.2 0.0 0.0
03:51 0.3 -2.6 81 1031.2 1.6 N 2.2 0.0 0.0
03:52 0.4 -2.5 81 1031.1 1.6 NW 2.2 0.0 0.0
03:54 0.4 -2.5 81 1031.2 1.6 N 2.2 0.0 0.0
03:55 0.4 -2.5 81 1031.2 1.6 N 2.2 0.0 0.0
03:56 0.4 -2.5 81 1031.1 1.6 N 2.2 0.0 0.0
03:57 0.4 -2.5 81 1031.2 1.6 N 2.2 0.0 0.0
03:58 0.4 -2.5 81 1031.1 1.6 N 2.2 0.0 0.0
03:59 0.4 -2.5 81 1031.1 1.6 N 2.2 0.0 0.0
04:00 0.4 -2.5 81 1031.1 2.2 NW 2.2 0.0 0.0
04:01 0.4 -2.5 81 1031.1 2.2 NW 2.2 0.0 0.0
04:02 0.4 -2.5 81 1031.0 2.2 NW 2.2 0.0 0.0
04:03 0.4 -2.5 81 1030.9 2.2 NW 2.2 0.0 0.0
04:04 0.4 -2.5 81 1031.0 2.2 NW 2.2 0.0 0.0
04:05 0.4 -2.5 81 1031.2 2.2 NW 2.2 0.0 0.0
04:06 0.4 -2.5 81 1031.2 1.6 N 2.2 0.0 0.0
04:08 0.4 -2.5 81 1031.1 2.2 N 2.2 0.0 0.0
04:09 0.4 -2.5 81 1031.1 1.6 NE 2.2 0.0 0.0
04:10 0.4 -2.5 81 1031.0 2.2 NE 2.2 0.0 0.0
04:11 0.4 -2.5 81 1031.2 2.2 NE 2.2 0.0 0.0
04:12 0.4 -2.5 81 1031.2 2.2 NE 2.2 0.0 0.0
04:13 0.4 -2.5 81 1031.2 1.6 NE 2.2 0.0 0.0
04:14 0.4 -2.5 81 1031.1 0.7 NE 2.2 0.0 0.0
04:15 0.4 -2.5 81 1031.2 0.0 NE 2.2 0.0 0.0
04:16 0.4 -2.5 81 1031.2 0.0 NE 2.2 0.0 0.0
04:17 0.4 -2.5 81 1031.2 0.0 NE 2.2 0.0 0.0
04:18 0.3 -2.6 81 1031.2 0.0 NE 2.2 0.0 0.0
04:19 0.3 -2.6 81 1031.0 0.0 NE 2.2 0.0 0.0
04:20 0.2 -2.7 81 1031.2 0.7 NE 2.2 0.0 0.0
04:22 0.2 -2.7 81 1031.2 1.6 NE 1.6 0.0 0.0
04:23 0.2 -2.7 81 1031.2 2.2 NE 2.2 0.0 0.0
04:24 0.2 -2.7 81 1031.2 2.2 NE 2.2 0.0 0.0
04:25 0.2 -2.7 81 1031.1 2.2 NE 2.2 0.0 0.0
04:26 0.2 -2.7 81 1031.0 2.2 NE 2.2 0.0 0.0
04:27 0.2 -2.7 81 1031.1 2.2 N 2.2 0.0 0.0
04:28 0.2 -2.7 81 1031.2 2.2 NE 2.2 0.0 0.0
04:29 0.2 -2.7 81 1031.1 2.2 NE 2.2 0.0 0.0
04:30 0.2 -2.7 81 1031.0 2.2 NE 2.2 0.0 0.0
04:31 0.2 -2.7 81 1031.1 1.6 N 2.2 0.0 0.0
04:32 0.2 -2.7 81 1031.1 1.6 NE 2.2 0.0 0.0
04:33 0.2 -2.7 81 1031.1 0.0 NE 2.2 0.0 0.0
04:34 0.2 -2.7 81 1031.1 0.0 NE 2.2 0.0 0.0
04:35 0.2 -2.7 81 1031.2 0.0 NE 2.2 0.0 0.0
04:37 0.1 -2.8 81 1031.2 0.0 NE 2.2 0.0 0.0
04:38 0.1 -2.8 81 1031.1 0.0 NE 2.2 0.0 0.0
04:39 0.1 -2.8 81 1031.2 0.0 NE 2.2 0.0 0.0
04:40 0.1 -2.8 81 1031.2 0.0 NE 2.2 0.0 0.0
04:41 0.1 -2.8 81 1031.2 1.6 NE 1.6 0.0 0.0
04:42 0.1 -2.8 81 1031.2 1.6 NE 1.6 0.0 0.0
04:43 0.1 -2.8 81 1031.2 1.6 NE 1.6 0.0 0.0
04:44 0.1 -2.8 81 1031.1 3.1 NE 3.1 0.0 0.0
04:45 0.1 -2.8 81 1031.2 3.1 N 3.1 0.0 0.0
04:46 0.1 -2.8 81 1031.2 3.8 N 3.8 0.0 0.0
04:47 0.1 -2.8 81 1031.2 3.1 N 3.8 0.0 0.0
04:48 0.1 -2.8 81 1031.1 2.2 NE 3.8 0.0 0.0
04:50 0.2 -2.7 81 1031.0 2.2 N 3.8 0.0 0.0
04:51 0.2 -2.7 81 1031.3 3.1 N 3.8 0.0 0.0
04:52 0.2 -2.7 81 1031.3 3.1 N 3.8 0.0 0.0
04:53 0.2 -2.7 81 1031.2 2.2 N 3.8 0.0 0.0
04:54 0.2 -2.7 81 1031.3 2.2 N 3.8 0.0 0.0
04:55 0.2 -2.7 81 1031.2 2.2 N 3.8 0.0 0.0
04:56 0.2 -2.7 81 1031.2 3.1 N 3.8 0.0 0.0
04:57 0.2 -2.7 81 1031.3 3.1 N 3.1 0.0 0.0
04:58 0.2 -2.7 81 1031.2 3.1 N 3.1 0.0 0.0
04:59 0.2 -2.7 81 1031.3 3.1 NE 3.1 0.0 0.0
05:00 0.3 -2.6 81 1031.2 3.1 NE 3.1 0.0 0.0
05:01 0.3 -2.6 81 1031.2 3.1 N 3.1 0.0 0.0
05:02 0.3 -2.6 81 1031.3 3.1 N 3.1 0.0 0.0
05:03 0.3 -2.6 81 1031.3 3.1 N 3.1 0.0 0.0
05:04 0.3 -2.6 81 1031.3 3.1 N 3.1 0.0 0.0
05:05 0.3 -2.6 81 1031.4 3.1 N 3.1 0.0 0.0
05:07 0.3 -2.6 81 1031.3 3.1 N 3.1 0.0 0.0
05:08 0.3 -2.6 81 1031.3 3.1 N 3.1 0.0 0.0
05:09 0.3 -2.6 81 1031.3 0.7 NE 3.1 0.0 0.0
05:10 0.3 -2.6 81 1031.1 1.6 N 3.1 0.0 0.0
05:11 0.3 -2.6 81 1031.2 1.6 N 3.1 0.0 0.0
05:12 0.3 -2.6 81 1031.3 1.6 N 3.1 0.0 0.0
05:13 0.3 -2.6 81 1031.3 1.6 N 3.1 0.0 0.0
05:14 0.3 -2.6 81 1031.2 2.2 N 3.1 0.0 0.0
05:15 0.3 -2.6 81 1031.4 2.2 NE 3.1 0.0 0.0
05:16 0.3 -2.6 81 1031.4 1.6 NE 3.1 0.0 0.0
05:17 0.3 -2.6 81 1031.3 0.7 W 3.1 0.0 0.0
05:18 0.3 -2.6 81 1031.4 0.0 W 3.1 0.0 0.0
05:19 0.3 -2.6 81 1031.4 0.0 W 2.2 0.0 0.0
05:21 0.2 -2.7 81 1031.4 0.0 W 2.2 0.0 0.0
05:22 0.2 -2.7 81 1031.5 0.0 W 2.2 0.0 0.0
05:23 0.2 -2.7 81 1031.5 0.0 W 2.2 0.0 0.0
05:24 0.2 -2.7 81 1031.5 0.0 W 2.2 0.0 0.0
05:25 0.2 -2.7 81 1031.5 0.0 W 2.2 0.0 0.0
05:26 0.1 -2.8 81 1031.4 0.0 W 0.7 0.0 0.0
05:27 0.1 -2.8 81 1031.5 0.0 W 0.7 0.0 0.0
05:28 0.1 -2.8 81 1031.4 0.0 W 0.0 0.0 0.0
05:29 0.1 -2.8 81 1031.5 0.0 NW 0.0 0.0 0.0
05:30 0.1 -2.8 81 1031.5 0.7 N 0.7 0.0 0.0
05:31 0.1 -2.8 81 1031.5 0.0 N 0.7 0.0 0.0
05:32 0.0 -2.9 81 1031.4 0.0 N 0.7 0.0 0.0
05:34 0.0 -2.9 81 1031.5 0.0 N 0.7 0.0 0.0
05:35 0.0 -2.9 81 1031.5 0.0 N 0.7 0.0 0.0
05:36 0.0 -2.9 81 1031.5 0.0 N 0.7 0.0 0.0
05:37 0.0 -2.9 81 1031.5 0.0 N 0.7 0.0 0.0
05:38 0.0 -2.9 81 1031.5 0.0 N 0.7 0.0 0.0
05:39 -0.1 -3.0 81 1031.6 0.0 N 0.7 0.0 0.0
05:40 -0.1 -3.0 81 1031.6 0.0 N 0.7 0.0 0.0
05:41 -0.1 -3.0 81 1031.5 0.0 N 0.0 0.0 0.0
05:42 -0.1 -3.0 81 1031.7 0.0 N 0.0 0.0 0.0
05:43 -0.1 -3.0 81 1031.5 0.0 N 0.0 0.0 0.0
05:44 -0.1 -3.0 81 1031.7 0.0 N 0.0 0.0 0.0
05:45 -0.2 -3.1 81 1031.7 0.0 N 0.0 0.0 0.0
05:46 -0.2 -3.1 81 1031.8 0.0 N 0.0 0.0 0.0
05:47 -0.2 -3.1 81 1031.7 0.0 N 0.0 0.0 0.0
05:49 -0.2 -3.1 81 1031.7 0.7 N 0.7 0.0 0.0
05:50 -0.3 -3.2 81 1031.6 1.6 N 1.6 0.0 0.0
05:51 -0.3 -3.2 81 1031.7 1.6 N 1.6 0.0 0.0
05:52 -0.3 -3.2 81 1031.7 1.6 N 1.6 0.0 0.0
05:53 -0.2 -3.1 81 1031.7 1.6 N 1.6 0.0 0.0
05:54 -0.3 -3.2 81 1031.7 1.6 N 1.6 0.0 0.0
05:55 -0.3 -3.2 81 1031.7 1.6 N 1.6 0.0 0.0
05:56 -0.3 -3.2 81 1031.7 1.6 N 1.6 0.0 0.0
05:57 -0.2 -3.1 81 1031.7 2.2 NE 2.2 0.0 0.0
05:58 -0.2 -3.1 81 1031.6 1.6 NE 2.2 0.0 0.0
05:59 -0.2 -3.1 81 1031.7 1.6 NE 2.2 0.0 0.0
06:00 -0.1 -3.0 81 1031.6 1.6 NE 2.2 0.0 0.0
06:01 -0.1 -3.0 81 1031.6 1.6 NE 2.2 0.0 0.0
06:03 -0.1 -3.0 81 1031.7 1.6 NE 2.2 0.0 0.0
06:04 -0.1 -3.0 81 1031.7 1.6 NE 2.2 0.0 0.0
06:05 -0.1 -3.0 81 1031.7 1.6 NE 2.2 0.0 0.0
06:06 -0.1 -3.0 81 1031.8 1.6 NE 2.2 0.0 0.0
06:07 -0.1 -3.0 81 1031.8 1.6 NE 2.2 0.0 0.0
06:08 0.0 -2.9 81 1031.6 0.0 NE 1.6 0.0 0.0
06:09 -0.1 -3.0 81 1031.7 0.0 NE 1.6 0.0 0.0
06:10 -0.1 -3.0 81 1031.7 0.0 NE 1.6 0.0 0.0
06:11 -0.1 -3.0 81 1031.6 0.0 NE 1.6 0.0 0.0
06:12 -0.2 -3.1 81 1031.7 0.0 NE 1.6 0.0 0.0
06:13 -0.2 -3.1 81 1031.7 0.0 NE 1.6 0.0 0.0
06:14 -0.3 -3.2 81 1031.7 0.0 NE 1.6 0.0 0.0
06:15 -0.3 -3.2 81 1031.8 0.0 N 1.6 0.0 0.0
06:17 -0.3 -3.2 81 1031.9 0.0 N 0.7 0.0 0.0
06:18 -0.4 -3.3 81 1031.9 0.0 N 0.7 0.0 0.0
06:19 -0.4 -3.3 81 1031.9 0.0 N 0.7 0.0 0.0
06:20 -0.4 -3.3 81 1031.9 0.0 N 0.7 0.0 0.0
06:21 -0.4 -3.3 81 1031.9 0.0 N 0.7 0.0 0.0
06:22 -0.4 -3.3 81 1031.9 0.0 N 0.7 0.0 0.0
06:23 -0.4 -3.3 81 1031.9 0.0 N 0.7 0.0 0.0
06:24 -0.5 -3.3 81 1031.7 0.0 N 0.7 0.0 0.0
06:25 -0.5 -3.3 81 1031.7 0.0 N 0.7 0.0 0.0
06:26 -0.5 -3.3 81 1031.9 0.0 N 0.7 0.0 0.0
06:27 -0.5 -3.3 81 1031.7 0.0 N 0.7 0.0 0.0
06:28 -0.5 -3.3 81 1031.9 0.0 N 0.7 0.0 0.0
06:29 -0.5 -3.3 81 1031.9 0.0 N 0.0 0.0 0.0
06:31 -0.5 -3.3 81 1031.8 0.0 N 0.0 0.0 0.0
06:32 -0.5 -3.3 81 1031.7 0.0 N 0.0 0.0 0.0
06:33 -0.5 -3.3 81 1031.8 0.0 N 0.0 0.0 0.0
06:34 -0.5 -3.3 81 1031.8 0.0 N 0.0 0.0 0.0
06:35 -0.5 -3.3 81 1031.9 0.0 N 0.0 0.0 0.0
06:36 -0.5 -3.3 81 1031.9 0.0 N 0.0 0.0 0.0
06:37 -0.5 -3.3 81 1031.9 0.0 N 0.0 0.0 0.0
06:38 -0.5 -3.3 81 1031.9 0.0 N 0.0 0.0 0.0
06:39 -0.5 -3.3 81 1032.0 0.0 N 0.0 0.0 0.0
06:40 -0.5 -3.3 81 1031.9 0.0 N 0.0 0.0 0.0
06:41 -0.5 -3.3 81 1031.8 0.0 N 0.0 0.0 0.0
06:42 -0.5 -3.3 81 1031.9 0.0 N 0.0 0.0 0.0
06:45 -0.5 -3.3 81 1031.7 0.0 N 0.0 0.0 0.0
06:46 -0.5 -3.3 81 1031.8 0.0 N 0.0 0.0 0.0
06:47 -0.5 -3.3 81 1032.0 0.0 N 0.0 0.0 0.0
06:48 -0.5 -3.3 81 1032.0 0.0 N 0.0 0.0 0.0
06:49 -0.5 -3.3 81 1031.9 0.0 N 0.0 0.0 0.0
06:50 -0.5 -3.3 81 1031.8 0.0 N 0.0 0.0 0.0
06:51 -0.5 -3.3 81 1031.9 0.0 N 0.0 0.0 0.0
06:52 -0.5 -3.3 81 1032.0 0.7 N 0.7 0.0 0.0
06:53 -0.5 -3.3 81 1031.9 2.2 N 2.2 0.0 0.0
06:54 -0.5 -3.3 81 1032.0 1.6 N 2.2 0.0 0.0
06:55 -0.5 -3.2 82 1032.0 0.7 N 2.2 0.0 0.0
06:56 -0.5 -3.3 81 1031.9 1.6 N 2.2 0.0 0.0
06:57 -0.5 -3.2 82 1032.0 1.6 N 2.2 0.0 0.0
06:59 -0.4 -3.1 82 1031.8 0.7 N 2.2 0.0 0.0
07:00 -0.4 -3.1 82 1031.9 0.7 N 2.2 0.0 0.0
07:01 -0.4 -3.1 82 1031.8 0.7 N 2.2 0.0 0.0
07:02 -0.4 -3.1 82 1031.9 0.7 N 2.2 0.0 0.0
07:03 -0.4 -3.1 82 1031.9 0.7 N 2.2 0.0 0.0
07:04 -0.4 -3.1 82 1031.8 0.7 N 1.6 0.0 0.0
07:05 -0.4 -3.1 82 1032.0 0.7 N 1.6 0.0 0.0
07:06 -0.4 -3.1 82 1031.8 0.7 N 1.6 0.0 0.0
07:07 -0.4 -3.1 82 1031.9 0.7 N 1.6 0.0 0.0
07:08 -0.3 -3.0 82 1031.8 0.7 N 1.6 0.0 0.0
07:09 -0.3 -3.0 82 1031.7 1.6 N 1.6 0.0 0.0
07:10 -0.3 -3.0 82 1031.8 2.2 NE 2.2 0.0 0.0
07:11 -0.2 -2.9 82 1031.9 1.6 N 2.2 0.0 0.0
07:12 -0.2 -2.9 82 1031.8 1.6 N 2.2 0.0 0.0
07:14 -0.2 -2.9 82 1031.9 2.2 NE 2.2 0.0 0.0
07:15 -0.2 -2.9 82 1031.8 2.2 N 2.2 0.0 0.0
07:16 -0.2 -2.9 82 1031.9 1.6 N 2.2 0.0 0.0
07:17 -0.2 -2.9 82 1031.8 1.6 N 2.2 0.0 0.0
07:18 -0.1 -2.8 82 1032.0 0.7 N 2.2 0.0 0.0
07:19 -0.2 -2.9 82 1032.0 0.7 N 2.2 0.0 0.0
07:20 -0.1 -2.8 82 1032.2 0.0 N 2.2 0.0 0.0
07:21 -0.2 -2.9 82 1032.1 0.0 N 2.2 0.0 0.0
07:22 -0.2 -2.9 82 1031.9 0.0 N 2.2 0.0 0.0
07:23 -0.3 -3.0 82 1032.1 0.0 N 2.2 0.0 0.0
07:24 -0.3 -3.0 82 1032.1 0.0 N 2.2 0.0 0.0
07:25 -0.3 -3.0 82 1032.2 0.0 N 2.2 0.0 0.0
07:26 -0.3 -3.0 82 1032.2 0.0 N 1.6 0.0 0.0
07:28 -0.4 -3.1 82 1032.3 0.0 N 0.7 0.0 0.0
07:29 -0.4 -3.1 82 1032.3 0.0 N 0.0 0.0 0.0
07:30 -0.4 -3.1 82 1032.2 0.0 N 0.0 0.0 0.0
07:31 -0.4 -3.1 82 1032.2 0.0 N 0.0 0.0 0.0
07:32 -0.4 -3.1 82 1032.2 0.0 N 0.0 0.0 0.0
07:33 -0.4 -3.1 82 1032.3 0.0 N 0.0 0.0 0.0
07:34 -0.4 -3.1 82 1032.1 0.7 N 0.7 0.0 0.0
07:35 -0.4 -3.1 82 1032.2 0.7 N 0.7 0.0 0.0
07:36 -0.4 -3.1 82 1032.2 0.7 N 0.7 0.0 0.0
07:37 -0.4 -3.1 82 1032.3 0.7 N 0.7 0.0 0.0
07:38 -0.4 -3.1 82 1032.3 0.7 N 0.7 0.0 0.0
07:39 -0.4 -3.1 82 1032.2 1.6 N 1.6 0.0 0.0
07:40 -0.4 -3.1 82 1032.3 1.6 N 1.6 0.0 0.0
07:42 -0.4 -3.1 82 1032.4 1.6 N 1.6 0.0 0.0
07:43 -0.4 -3.1 82 1032.4 1.6 N 1.6 0.0 0.0
07:44 -0.4 -3.1 82 1032.2 1.6 N 1.6 0.0 0.0
07:45 -0.4 -3.1 82 1032.5 0.7 N 1.6 0.0 0.0
07:46 -0.4 -3.1 82 1032.3 1.6 N 1.6 0.0 0.0
07:47 -0.3 -3.0 82 1032.4 0.7 N 1.6 0.0 0.0
07:48 -0.3 -3.0 82 1032.3 0.7 N 1.6 0.0 0.0
07:49 -0.3 -3.0 82 1032.2 0.7 N 1.6 0.0 0.0
07:50 -0.3 -3.0 82 1032.3 0.7 N 1.6 0.0 0.0
07:51 -0.2 -2.9 82 1032.1 0.7 N 1.6 0.0 0.0
07:52 -0.2 -2.9 82 1032.3 0.7 N 1.6 0.0 0.0
07:53 -0.2 -2.9 82 1032.2 0.7 N 1.6 0.0 0.0
07:54 -0.2 -2.9 82 1032.4 0.7 N 1.6 0.0 0.0
07:56 -0.2 -2.9 82 1032.2 0.7 N 1.6 0.0 0.0
07:57 -0.1 -2.8 82 1032.4 1.6 N 1.6 0.0 0.0
07:58 -0.1 -2.8 82 1032.2 0.7 N 1.6 0.0 0.0
07:59 -0.1 -2.8 82 1032.3 1.6 N 1.6 0.0 0.0
08:00 -0.1 -2.8 82 1032.3 1.6 N 1.6 0.0 0.0
08:01 -0.1 -2.8 82 1032.3 1.6 N 1.6 0.0 0.0
08:02 -0.1 -2.8 82 1032.3 1.6 N 1.6 0.0 0.0
08:03 -0.1 -2.8 82 1032.2 1.6 N 1.6 0.0 0.0
08:04 -0.1 -2.8 82 1032.2 1.6 N 1.6 0.0 0.0
08:05 -0.1 -2.8 82 1032.2 1.6 N 1.6 0.0 0.0
08:06 0.0 -2.7 82 1032.3 3.1 ENE 3.1 0.0 0.0
08:07 0.0 -2.7 82 1032.4 3.1 NE 3.1 0.0 0.0
08:08 0.0 -2.7 82 1032.3 3.1 NNE 3.1 0.0 0.0
08:10 0.1 -2.6 82 1032.3 3.1 NE 3.1 0.0 0.0
08:11 0.1 -2.6 82 1032.4 3.8 NNE 3.8 0.0 0.0
08:12 0.1 -2.6 82 1032.3 4.5 NNE 4.5 0.0 0.0
08:13 0.1 -2.6 82 1032.3 3.8 N 4.5 0.0 0.0
08:14 0.2 -2.5 82 1032.4 3.8 NE 4.5 0.0 0.0
08:15 0.2 -2.5 82 1032.3 3.1 NE 4.5 0.0 0.0
08:16 0.2 -2.5 82 1032.3 4.5 N 4.5 0.0 0.0
08:17 0.3 -2.4 82 1032.5 3.8 NE 4.5 0.0 0.0
08:18 0.3 -2.4 82 1032.3 3.8 NE 4.5 0.0 0.0
08:19 0.3 -2.2 83 1032.3 3.8 NE 4.5 0.0 0.0
08:20 0.3 -2.2 83 1032.2 3.8 NE 4.5 0.0 0.0
08:21 0.4 -2.1 83 1032.2 3.1 N 4.5 0.0 0.0
08:22 0.4 -2.3 82 1032.4 3.1 N 4.5 0.0 0.0
08:23 0.5 -2.0 83 1032.2 2.2 NE 4.5 0.0 0.0
08:25 0.5 -2.0 83 1032.4 2.2 N 4.5 0.0 0.0
08:26 0.5 -2.0 83 1032.4 2.2 N 3.8 0.0 0.0
08:27 0.6 -1.9 83 1032.3 1.6 N 3.8 0.0 0.0
08:28 0.6 -1.9 83 1032.3 1.6 N 3.8 0.0 0.0
08:29 0.6 -1.9 83 1032.4 2.2 N 3.8 0.0 0.0
08:30 0.7 -1.8 83 1032.4 3.1 NE 3.8 0.0 0.0
08:31 0.7 -1.8 83 1032.3 3.8 NE 3.8 0.0 0.0
08:32 0.7 -1.8 83 1032.3 4.5 N 4.5 0.0 0.0
08:33 0.8 -1.8 83 1032.2 3.8 NNE 4.5 0.0 0.0
08:34 0.8 -1.8 83 1032.3 3.8 NE 4.5 0.0 0.0
08:35 0.8 -1.8 83 1032.3 3.8 NE 4.5 0.0 0.0
08:36 0.8 -1.8 83 1032.4 3.1 N 4.5 0.0 0.0
08:37 0.8 -1.8 83 1032.3 3.8 NE 4.5 0.0 0.0
08:39 0.8 -1.8 83 1032.2 3.1 NNE 4.5 0.0 0.0
08:40 0.9 -1.7 83 1032.3 2.2 N 4.5 0.0 0.0
08:41 0.9 -1.7 83 1032.4 2.2 N 4.5 0.0 0.0
08:42 0.9 -1.7 83 1032.3 2.2 NE 3.8 0.0 0.0
08:43 0.9 -1.7 83 1032.3 2.2 NE 3.8 0.0 0.0
08:44 0.9 -1.7 83 1032.3 2.2 N 3.8 0.0 0.0
08:45 0.9 -1.7 83 1032.4 2.2 N 3.8 0.0 0.0
08:46 0.9 -1.7 83 1032.4 3.8 NE 3.8 0.0 0.0
08:47 1.0 -1.6 83 1032.3 3.8 N 3.8 0.0 0.0
08:48 1.0 -1.6 83 1032.3 3.8 NE 3.8 0.0 0.0
08:49 1.0 -1.6 83 1032.3 3.1 NE 3.8 0.0 0.0
08:50 1.0 -1.6 83 1032.4 3.1 NE 3.8 0.0 0.0
08:51 1.1 -1.5 83 1032.4 2.2 NE 3.8 0.0 0.0
08:53 1.1 -1.5 83 1032.4 2.2 NE 3.8 0.0 0.0
08:54 1.1 -1.5 83 1032.5 1.6 NE 3.8 0.0 0.0
08:55 1.1 -1.5 83 1032.5 1.6 N 3.8 0.0 0.0
08:56 1.1 -1.5 83 1032.4 0.7 N 3.8 0.0 0.0
08:57 1.1 -1.6 82 1032.4 0.0 N 3.8 0.0 0.0
08:58 1.1 -1.6 82 1032.5 0.0 N 3.1 0.0 0.0
08:59 1.1 -1.6 82 1032.5 0.0 N 3.1 0.0 0.0
09:00 1.1 -1.6 82 1032.3 0.0 N 3.1 0.0 0.0
09:01 1.1 -1.6 82 1032.5 0.0 N 3.1 0.0 0.0
09:02 1.1 -1.6 82 1032.5 0.0 N 2.2 0.0 0.0
09:03 1.1 -1.6 82 1032.4 0.0 N 2.2 0.0 0.0
09:04 1.1 -1.6 82 1032.4 0.0 N 1.6 0.0 0.0
09:05 1.1 -1.6 82 1032.3 0.0 N 1.6 0.0 0.0
09:07 1.1 -1.6 82 1032.3 0.0 N 0.0 0.0 0.0
09:08 0.9 -1.8 82 1032.4 0.0 SE 0.0 0.0 0.0
09:09 0.9 -1.8 82 1032.4 0.0 SE 0.0 0.0 0.0
09:10 0.9 -1.8 82 1032.2 0.0 SE 0.0 0.0 0.0
09:11 0.9 -1.8 82 1032.2 0.0 SE 0.0 0.0 0.0
09:12 0.9 -1.8 82 1032.2 0.0 SE 0.0 0.0 0.0
09:13 0.9 -1.8 82 1032.2 0.0 SE 0.0 0.0 0.0
09:14 0.9 -1.8 82 1032.3 0.0 SE 0.0 0.0 0.0
09:15 0.9 -1.8 82 1032.2 0.0 SE 0.0 0.0 0.0
09:16 0.9 -1.8 82 1032.2 0.0 SE 0.0 0.0 0.0
09:17 0.9 -1.8 82 1032.3 0.0 SE 0.0 0.0 0.0
09:18 0.9 -1.8 82 1032.2 0.0 SE 0.0 0.0 0.0
09:19 0.9 -1.8 82 1032.4 0.0 SE 0.0 0.0 0.0
09:21 0.9 -1.8 82 1032.4 0.0 SE 0.0 0.0 0.0
09:22 0.9 -1.8 82 1032.4 0.0 SE 0.0 0.0 0.0
09:23 0.9 -1.8 82 1032.5 0.0 NW 0.0 0.0 0.0
09:24 0.9 -1.8 82 1032.3 0.0 NW 0.0 0.0 0.0
09:25 1.0 -1.7 82 1032.5 0.0 NW 0.0 0.0 0.0
09:26 1.0 -1.7 82 1032.5 0.0 NW 0.0 0.0 0.0
09:27 1.0 -1.7 82 1032.5 0.7 NW 0.7 0.0 0.0
09:28 1.0 -1.7 82 1032.5 0.0 NW 0.7 0.0 0.0
09:29 1.1 -1.6 82 1032.5 0.0 NW 0.7 0.0 0.0
09:30 1.2 -1.5 82 1032.4 1.6 NW 1.6 0.0 0.0
09:31 1.3 -1.3 83 1032.4 1.6 NW 1.6 0.0 0.0
09:32 1.3 -1.3 83 1032.4 0.7 NW 1.6 0.0 0.0
09:33 1.4 -1.2 83 1032.4 0.7 NW 1.6 0.0 0.0
09:34 1.5 -1.1 83 1032.4 1.6 NW 1.6 0.0 0.0
09:36 1.7 -0.9 83 1032.5 2.2 NW 2.2 0.0 0.0
09:37 1.8 -0.8 83 1032.6 1.6 NW 2.2 0.0 0.0
09:38 1.9 -0.7 83 1032.5 0.7 NW 2.2 0.0 0.0
09:39 2.0 -0.6 83 1032.6 1.6 NW 2.2 0.0 0.0
09:40 2.0 -0.6 83 1032.5 1.6 NW 2.2 0.0 0.0
09:41 2.1 -0.5 83 1032.6 0.0 NW 2.2 0.0 0.0
09:42 2.2 -0.4 83 1032.6 0.0 NW 2.2 0.0 0.0
09:43 2.3 -0.3 83 1032.6 0.7 W 2.2 0.0 0.0
09:44 2.4 0.0 84 1032.6 0.0 W 2.2 0.0 0.0
09:45 2.5 0.1 84 1032.7 0.7 W 2.2 0.0 0.0
09:46 2.6 0.2 84 1032.7 0.0 W 2.2 0.0 0.0
09:47 2.8 0.4 84 1032.7 0.7 NW 1.6 0.0 0.0
09:48 2.8 0.4 84 1032.8 1.6 NW 1.6 0.0 0.0
09:50 3.0 0.6 84 1032.7 2.2 W 2.2 0.0 0.0
09:51 3.1 0.7 84 1032.8 1.6 N 2.2 0.0 0.0
09:52 3.2 0.8 84 1032.7 0.7 NW 2.2 0.0 0.0
09:53 3.2 0.8 84 1032.7 0.7 NW 2.2 0.0 0.0
09:54 3.3 0.9 84 1032.7 1.6 NW 2.2 0.0 0.0
09:55 3.4 1.0 84 1032.6 1.6 NW 2.2 0.0 0.0
09:56 3.4 1.0 84 1032.7 0.0 NW 2.2 0.0 0.0
09:57 3.6 1.2 84 1032.7 0.7 NW 2.2 0.0 0.0
09:58 3.6 1.2 84 1032.7 0.0 NW 2.2 0.0 0.0
09:59 3.7 1.3 84 1033.1 0.7 NW 2.2 0.0 0.0
10:00 3.8 1.3 84 1032.7 0.0 NW 2.2 0.0 0.0
10:01 3.8 1.3 84 1032.7 0.0 NW 1.6 0.0 0.0
10:02 4.0 1.5 84 1032.8 0.7 N 1.6 0.0 0.0
10:04 4.2 1.7 84 1032.7 2.2 W 2.2 0.0 0.0
10:05 4.3 1.8 84 1032.8 1.6 W 2.2 0.0 0.0
10:06 4.3 1.8 84 1032.6 0.7 NW 2.2 0.0 0.0
10:07 4.5 2.0 84 1032.8 0.0 NW 2.2 0.0 0.0
10:08 4.5 2.0 84 1032.8 0.0 NW 2.2 0.0 0.0
10:09 4.5 2.0 84 1032.7 0.7 NW 2.2 0.0 0.0
10:10 4.7 2.2 84 1032.7 0.0 NW 2.2 0.0 0.0
10:11 4.8 2.3 84 1032.8 1.6 NW 2.2 0.0 0.0
10:12 4.8 2.3 84 1032.8 0.7 NW 2.2 0.0 0.0
10:13 5.0 2.5 84 1032.7 0.7 NW 2.2 0.0 0.0
10:14 5.0 2.5 84 1032.6 2.2 N 2.2 0.0 0.0
10:15 5.1 2.6 84 1033.1 1.6 NW 2.2 0.0 0.0
10:16 5.2 2.7 84 1032.9 2.2 N 2.2 0.0 0.0
10:17 5.3 2.8 84 1032.7 0.7 N 2.2 0.0 0.0
10:19 5.4 2.9 84 1032.8 2.2 NW 2.2 0.0 0.0
10:20 5.5 3.0 84 1032.7 1.6 NW 2.2 0.0 0.0
10:21 5.5 3.0 84 1032.7 2.2 NW 2.2 0.0 0.0
10:22 5.6 3.1 84 1032.7 1.6 W 2.2 0.0 0.0
10:23 5.7 3.2 84 1032.6 0.7 NW 2.2 0.0 0.0
10:24 5.7 3.2 84 1032.7 3.8 NW 3.8 0.0 0.0
10:25 5.8 3.3 84 1032.7 1.6 N 3.8 0.0 0.0
10:26 5.9 3.4 84 1032.7 1.6 N 3.8 0.0 0.0
10:27 5.9 3.4 84 1032.7 3.1 NW 3.8 0.0 0.0
10:28 6.0 3.5 84 1032.8 2.2 N 3.8 0.0 0.0
10:29 6.0 3.5 84 1032.7 1.6 N 3.8 0.0 0.0
10:30 6.2 3.7 84 1032.7 3.1 N 3.8 0.0 0.0
10:31 6.3 3.8 84 1032.7 3.1 N 3.8 0.0 0.0
10:32 6.3 3.8 84 1032.7 1.6 N 3.8 0.0 0.0
10:34 6.4 3.9 84 1032.6 1.6 NW 3.8 0.0 0.0
10:35 6.5 3.8 83 1032.8 2.2 N 3.8 0.0 0.0
10:36 6.6 3.9 83 1032.7 2.2 NW 3.8 0.0 0.0
10:37 6.6 3.9 83 1032.8 2.2 N 3.8 0.0 0.0
10:38 6.7 4.0 83 1032.6 2.2 NW 3.8 0.0 0.0
10:39 6.7 4.0 83 1032.7 2.2 NW 3.8 0.0 0.0
10:40 6.8 4.1 83 1032.6 3.1 NW 3.1 0.0 0.0
10:41 6.9 4.2 83 1032.7 2.2 NW 3.1 0.0 0.0
10:42 7.0 4.3 83 1032.7 3.1 NW 3.1 0.0 0.0
10:43 7.0 4.3 83 1032.7 3.8 NW 3.8 0.0 0.0
10:44 7.0 4.3 83 1032.7 2.2 NW 3.8 0.0 0.0
10:45 7.2 4.5 83 1032.7 3.8 NW 3.8 0.0 0.0
10:46 7.2 4.5 83 1032.7 3.1 N 3.8 0.0 0.0
10:48 7.3 4.4 82 1032.7 2.2 NW 3.8 0.0 0.0
10:49 7.4 4.5 82 1032.7 3.8 NW 3.8 0.0 0.0
10:50 7.4 4.5 82 1032.7 3.8 NW 3.8 0.0 0.0
10:51 7.5 4.6 82 1032.7 3.1 N 3.8 0.0 0.0
10:52 7.5 4.6 82 1032.7 3.1 N 3.8 0.0 0.0
10:53 7.6 4.7 82 1032.6 2.2 E 3.8 0.0 0.0
10:54 7.6 4.7 82 1032.6 3.8 NE 3.8 0.0 0.0
10:55 7.7 4.8 82 1032.7 3.8 W 3.8 0.0 0.0
10:56 7.7 4.8 82 1032.7 1.6 W 3.8 0.0 0.0
10:57 7.8 4.9 82 1032.5 3.1 N 3.8 0.0 0.0
10:58 7.8 4.9 82 1032.7 3.8 NW 3.8 0.0 0.0
10:59 7.9 4.8 81 1032.7 3.1 N 3.8 0.0 0.0
11:00 7.9 4.8 81 1032.7 3.1 N 3.8 0.0 0.0
11:01 7.9 4.8 81 1032.7 3.1 N 3.8 0.0 0.0
11:02 7.9 4.8 81 1032.7 3.1 N 3.8 0.0 0.0
11:03 7.9 4.8 81 1032.7 3.1 N 3.8 0.0 0.0
11:04 7.9 4.8 81 1032.7 3.1 N 3.8 0.0 0.0
11:05 7.9 4.8 81 1032.5 3.1 N 3.8 0.0 0.0
11:06 8.2 5.1 81 1032.7 4.5 N 4.5 0.0 0.0
11:07 8.3 5.1 80 1032.7 2.2 N 4.5 0.0 0.0
11:08 8.3 5.1 80 1032.7 2.2 NW 4.5 0.0 0.0
11:10 8.4 5.2 80 1032.8 2.2 NE 4.5 0.0 0.0
11:11 8.4 5.2 80 1032.8 3.1 NW 4.5 0.0 0.0
11:12 8.4 5.2 80 1032.7 3.8 W 4.5 0.0 0.0
11:13 8.5 5.2 80 1032.8 2.2 NW 4.5 0.0 0.0
11:14 8.5 5.1 79 1032.7 3.8 NW 4.5 0.0 0.0
11:15 8.5 5.1 79 1032.7 3.8 NW 4.5 0.0 0.0
11:16 8.5 5.1 79 1032.7 4.5 N 4.5 0.0 0.0
11:17 8.6 5.2 79 1032.6 3.1 NW 4.5 0.0 0.0
11:19 8.7 5.3 79 1032.7 3.8 NW 4.5 0.0 0.0
11:20 8.7 5.3 79 1032.8 3.8 N 4.5 0.0 0.0
11:21 8.7 5.1 78 1032.8 1.6 NW 4.5 0.0 0.0
11:22 8.8 5.2 78 1032.7 1.6 NW 4.5 0.0 0.0
11:23 8.8 5.2 78 1032.7 1.6 NW 4.5 0.0 0.0
11:25 9.0 5.4 78 1032.6 3.1 NW 4.5 0.0 0.0
11:26 9.0 5.4 78 1032.7 1.6 NW 4.5 0.0 0.0
11:28 9.1 5.5 78 1032.6 1.6 NW 4.5 0.0 0.0
11:29 9.1 5.5 78 1032.6 2.2 NW 3.8 0.0 0.0
11:30 9.2 5.6 78 1032.6 3.1 W 3.8 0.0 0.0
11:32 9.3 5.7 78 1032.6 1.6 W 3.1 0.0 0.0
11:33 9.4 5.6 77 1032.6 3.8 N 3.8 0.0 0.0
11:34 9.5 5.7 77 1032.6 2.2 NW 3.8 0.0 0.0
11:36 9.5 5.7 77 1032.6 3.8 W 3.8 0.0 0.0
11:37 9.6 5.8 77 1032.6 3.8 NW 3.8 0.0 0.0
11:38 9.6 5.8 77 1032.5 2.2 N 3.8 0.0 0.0
11:40 9.6 5.6 76 1032.6 1.6 NW 3.8 0.0 0.0
11:41 9.7 5.7 76 1032.8 4.5 NW 4.5 0.0 0.0
11:42 9.7 5.7 76 1032.7 5.4 SW 5.4 0.0 0.0
11:44 9.8 5.8 76 1032.7 3.8 NW 5.4 0.0 0.0
11:45 9.8 5.6 75 1032.7 2.2 NW 5.4 0.0 0.0
11:46 9.8 5.6 75 1032.6 3.1 N 5.4 0.0 0.0
11:47 9.9 5.7 75 1032.7 2.2 N 5.4 0.0 0.0
11:48 10.0 5.8 75 1032.7 3.8 WNW 5.4 0.0 0.0
11:49 10.0 5.8 75 1032.7 4.5 SE 5.4 0.0 0.0
11:50 10.0 5.8 75 1032.7 3.1 NW 5.4 0.0 0.0
11:51 10.1 5.9 75 1032.7 3.1 SW 5.4 0.0 0.0
11:52 10.2 6.0 75 1032.7 3.8 NW 4.5 0.0 0.0
11:53 10.2 6.0 75 1032.7 3.1 ENE 4.5 0.0 0.0
11:55 10.2 5.8 74 1032.7 4.5 NW 4.5 0.0 0.0
11:56 10.3 5.9 74 1032.8 3.8 W 4.5 0.0 0.0
11:57 10.3 5.9 74 1032.7 3.8 NW 4.5 0.0 0.0
11:58 10.4 6.0 74 1032.7 2.2 NE 4.5 0.0 0.0
11:59 10.4 6.0 74 1032.7 3.1 NE 4.5 0.0 0.0
12:00 10.4 6.0 74 1032.7 1.6 SW 4.5 0.0 0.0
12:01 10.4 6.0 74 1032.6 1.6 SW 4.5 0.0 0.0
12:03 10.4 6.0 74 1032.5 1.6 SW 4.5 0.0 0.0
12:04 10.4 6.0 74 1032.5 1.6 SW 4.5 0.0 0.0
12:05 10.4 6.0 74 1032.4 1.6 SW 3.8 0.0 0.0
12:06 10.6 6.0 73 1032.5 3.8 NW 3.8 0.0 0.0
12:07 10.6 6.0 73 1032.6 2.2 NW 3.8 0.0 0.0
12:08 10.7 6.1 73 1032.6 3.8 NNE 3.8 0.0 0.0
12:09 10.7 6.1 73 1032.5 3.8 N 3.8 0.0 0.0
12:10 10.7 5.9 72 1032.4 2.2 NW 3.8 0.0 0.0
12:11 10.8 6.0 72 1032.4 3.8 NW 3.8 0.0 0.0
12:12 10.8 6.0 72 1032.4 2.2 NW 3.8 0.0 0.0
12:13 10.8 6.0 72 1032.4 3.1 W 3.8 0.0 0.0
12:14 10.9 6.1 72 1032.4 3.1 NW 3.8 0.0 0.0
12:15 10.9 6.1 72 1032.5 2.2 N 3.8 0.0 0.0
12:17 10.9 6.1 72 1032.4 6.0 SW 6.0 0.0 0.0
12:18 11.0 5.9 71 1032.4 3.8 NW 6.0 0.0 0.0
12:19 11.0 5.9 71 1032.5 3.1 N 6.0 0.0 0.0
12:20 11.0 5.9 71 1032.5 3.1 N 6.0 0.0 0.0
12:21 11.0 5.9 71 1032.3 3.1 NW 6.0 0.0 0.0
12:22 11.0 5.9 71 1032.4 4.5 W 6.0 0.0 0.0
12:23 11.1 6.0 71 1032.3 3.1 N 6.0 0.0 0.0
12:24 11.1 6.0 71 1032.4 3.1 N 6.0 0.0 0.0
12:25 11.1 6.0 71 1032.3 5.4 NW 6.0 0.0 0.0
12:26 11.2 5.9 70 1032.2 4.5 S 6.0 0.0 0.0
12:27 11.2 6.1 71 1032.3 3.1 SW 6.0 0.0 0.0
12:28 11.2 5.9 70 1032.2 3.1 N 5.4 0.0 0.0
12:29 11.2 5.9 70 1032.2 2.2 NW 5.4 0.0 0.0
12:31 11.3 6.0 70 1032.3 3.8 N 5.4 0.0 0.0
12:32 11.2 5.9 70 1032.2 3.8 W 5.4 0.0 0.0
12:33 11.2 5.9 70 1032.2 1.6 N 5.4 0.0 0.0
12:34 11.3 6.0 70 1032.2 3.8 N 5.4 0.0 0.0
12:35 11.3 5.8 69 1032.2 6.0 NW 6.0 0.0 0.0
12:36 11.3 5.8 69 1032.2 3.8 NW 6.0 0.0 0.0
12:37 11.3 5.8 69 1032.2 3.8 SW 6.0 0.0 0.0
12:38 11.3 5.8 69 1032.3 3.1 W 6.0 0.0 0.0
12:39 11.3 5.8 69 1032.3 2.2 S 6.0 0.0 0.0
12:40 11.3 5.8 69 1032.2 2.2 NW 6.0 0.0 0.0
12:41 11.3 5.8 69 1032.3 4.5 NW 6.0 0.0 0.0
12:42 11.3 5.8 69 1032.2 6.9 NW 6.9 0.0 0.0
12:43 11.3 5.8 69 1032.2 5.4 W 6.9 0.0 0.0
12:45 11.3 5.6 68 1032.3 6.0 NW 6.9 0.0 0.0
12:46 11.3 5.6 68 1032.4 6.9 NW 6.9 0.0 0.0
12:47 11.3 5.4 67 1032.2 3.8 N 6.9 0.0 0.0
12:48 11.2 5.3 67 1032.3 4.5 NW 6.9 0.0 0.0
12:49 11.2 5.3 67 1032.3 4.5 NW 6.9 0.0 0.0
12:50 11.1 5.2 67 1032.2 6.0 NE 6.9 0.0 0.0
12:51 11.1 5.2 67 1032.2 4.5 NW 6.9 0.0 0.0
12:52 11.0 5.1 67 1032.1 4.5 NW 6.9 0.0 0.0
12:53 10.9 5.0 67 1032.1 2.2 NW 6.9 0.0 0.0
12:54 10.9 5.0 67 1032.2 3.1 W 6.9 0.0 0.0
12:55 10.9 5.0 67 1032.1 4.5 NW 6.9 0.0 0.0
12:56 10.9 5.0 67 1032.1 4.5 NE 6.9 0.0 0.0
12:57 10.8 4.9 67 1032.0 4.5 NW 6.0 0.0 0.0
12:59 10.7 4.6 66 1032.1 3.8 NW 6.0 0.0 0.0
13:00 10.7 4.6 66 1032.1 3.8 NW 5.4 0.0 0.0
13:01 10.7 4.6 66 1032.2 3.8 NW 5.4 0.0 0.0
13:02 10.6 4.5 66 1032.2 3.8 NW 5.4 0.0 0.0
13:04 10.5 4.4 66 1032.1 3.8 WNW 5.4 0.0 0.0
13:05 10.5 4.6 67 1032.1 3.1 N 5.4 0.0 0.0
13:06 10.5 4.6 67 1032.1 3.1 N 5.4 0.0 0.0
13:07 10.5 4.6 67 1032.0 3.1 NW 4.5 0.0 0.0
13:09 10.5 4.6 67 1032.1 4.5 W 4.5 0.0 0.0
13:10 10.5 4.6 67 1031.9 4.5 W 4.5 0.0 0.0
13:11 10.6 4.7 67 1032.1 4.5 W 4.5 0.0 0.0
13:12 10.6 4.7 67 1032.0 3.8 WNW 4.5 0.0 0.0
13:13 10.6 4.7 67 1032.0 3.8 NW 4.5 0.0 0.0
13:14 10.6 4.7 67 1032.0 3.8 NE 4.5 0.0 0.0
13:15 10.6 4.7 67 1032.0 2.2 W 4.5 0.0 0.0
13:16 10.6 4.7 67 1032.1 2.2 W 4.5 0.0 0.0
13:17 10.6 4.7 67 1031.9 1.6 NW 4.5 0.0 0.0
13:18 10.6 4.7 67 1031.9 1.6 WNW 4.5 0.0 0.0
13:19 10.6 4.7 67 1032.0 2.2 N 4.5 0.0 0.0
13:20 10.6 4.7 67 1032.0 2.2 W 4.5 0.0 0.0
13:21 10.6 4.7 67 1032.0 2.2 W 4.5 0.0 0.0
13:22 10.6 4.7 67 1032.0 1.6 NW 3.8 0.0 0.0
13:24 10.7 4.8 67 1032.1 4.5 NW 4.5 0.0 0.0
13:25 10.7 4.8 67 1032.1 3.8 NW 4.5 0.0 0.0
13:26 10.8 4.9 67 1032.0 3.1 N 4.5 0.0 0.0
13:27 10.8 4.9 67 1032.1 2.2 N 4.5 0.0 0.0
13:28 10.8 4.9 67 1032.1 2.2 N 4.5 0.0 0.0
13:29 10.8 4.9 67 1032.0 1.6 N 4.5 0.0 0.0
13:30 10.9 5.0 67 1031.9 2.2 NW 4.5 0.0 0.0
13:31 10.9 5.0 67 1032.0 3.8 W 4.5 0.0 0.0
13:32 10.9 5.0 67 1032.0 3.1 NW 4.5 0.0 0.0
13:33 11.0 5.1 67 1032.0 3.1 SE 4.5 0.0 0.0
13:34 11.0 5.1 67 1032.0 3.1 SW 4.5 0.0 0.0
13:35 11.1 5.2 67 1032.0 2.2 NW 4.5 0.0 0.0
13:36 11.1 5.2 67 1031.9 2.2 W 4.5 0.0 0.0
13:38 11.2 5.3 67 1031.8 3.1 N 4.5 0.0 0.0
13:39 11.2 5.3 67 1031.8 3.8 N 4.5 0.0 0.0
13:40 11.3 5.4 67 1032.0 5.4 NW 5.4 0.0 0.0
13:41 11.3 5.4 67 1031.9 3.8 NW 5.4 0.0 0.0
13:42 11.3 5.4 67 1032.0 6.0 S 6.0 0.0 0.0
13:43 11.3 5.4 67 1031.7 4.5 SW 6.0 0.0 0.0
13:44 11.3 5.2 66 1031.8 6.0 SW 6.0 0.0 0.0
13:45 11.3 5.2 66 1031.8 4.5 NW 6.0 0.0 0.0
13:46 11.3 5.2 66 1031.8 3.8 N 6.0 0.0 0.0
13:47 11.2 5.1 66 1031.9 3.8 NW 6.0 0.0 0.0
13:48 11.2 5.1 66 1031.7 3.1 NW 6.0 0.0 0.0
13:49 11.2 5.1 66 1031.8 3.8 NW 6.0 0.0 0.0
13:50 11.1 5.0 66 1031.7 0.7 NW 6.0 0.0 0.0
13:52 11.1 5.0 66 1031.8 1.6 W 6.0 0.0 0.0
13:53 11.1 5.0 66 1031.7 3.1 N 6.0 0.0 0.0
13:54 11.1 5.0 66 1031.8 3.1 SW 5.4 0.0 0.0
13:55 11.1 5.0 66 1031.7 3.8 NE 4.5 0.0 0.0
13:56 11.1 5.0 66 1031.7 3.8 NE 3.8 0.0 0.0
13:57 11.1 5.0 66 1031.8 3.1 NE 3.8 0.0 0.0
13:58 11.1 5.0 66 1031.8 3.1 NW 3.8 0.0 0.0
13:59 11.2 5.1 66 1031.8 5.4 W 5.4 0.0 0.0
14:00 11.2 5.1 66 1031.8 3.8 SW 5.4 0.0 0.0
14:01 11.2 5.1 66 1031.6 3.8 SW 5.4 0.0 0.0
14:02 11.2 5.1 66 1031.7 3.8 SW 5.4 0.0 0.0
14:03 11.2 5.1 66 1031.6 3.8 SW 5.4 0.0 0.0
14:04 11.2 5.1 66 1031.6 3.8 SW 5.4 0.0 0.0
14:05 11.2 5.1 66 1031.8 3.8 SW 5.4 0.0 0.0
14:07 11.2 4.9 65 1031.7 3.1 N 5.4 0.0 0.0
14:08 11.2 4.9 65 1031.6 2.2 NE 5.4 0.0 0.0
14:09 11.2 4.9 65 1031.6 3.1 NW 3.8 0.0 0.0
14:10 11.2 4.9 65 1031.7 4.5 N 4.5 0.0 0.0
14:11 11.2 4.9 65 1031.7 4.5 NE 4.5 0.0 0.0
14:12 11.2 4.9 65 1031.6 3.1 NW 4.5 0.0 0.0
14:13 11.2 4.9 65 1031.7 4.5 NW 4.5 0.0 0.0
14:14 11.2 4.9 65 1031.7 3.8 NE 4.5 0.0 0.0
14:15 11.2 4.9 65 1031.6 3.1 N 4.5 0.0 0.0
14:16 11.2 4.6 64 1031.6 3.1 NE 4.5 0.0 0.0
14:17 11.2 4.6 64 1031.5 5.4 ENE 5.4 0.0 0.0
14:18 11.1 4.6 64 1031.7 3.8 NW 5.4 0.0 0.0
14:20 11.1 4.6 64 1031.4 3.1 N 5.4 0.0 0.0
14:21 11.1 4.6 64 1031.6 2.2 NW 5.4 0.0 0.0
14:22 11.1 4.6 64 1031.5 3.1 N 5.4 0.0 0.0
14:23 11.1 4.6 64 1031.7 3.8 NE 5.4 0.0 0.0
14:24 11.1 4.6 64 1031.7 3.8 NE 5.4 0.0 0.0
14:25 11.0 4.5 64 1031.6 3.8 NE 5.4 0.0 0.0
14:26 11.0 4.5 64 1031.5 4.5 N 5.4 0.0 0.0
14:27 11.0 4.5 64 1031.5 3.8 NW 5.4 0.0 0.0
14:28 11.0 4.5 64 1031.5 3.1 NW 4.5 0.0 0.0
14:29 11.0 4.5 64 1031.5 6.0 N 6.0 0.0 0.0
14:30 10.9 4.4 64 1031.4 3.1 N 6.0 0.0 0.0
14:31 10.9 4.4 64 1031.6 2.2 N 6.0 0.0 0.0
14:32 10.8 4.0 63 1031.5 3.8 NE 6.0 0.0 0.0
14:34 10.7 3.9 63 1031.5 4.5 N 6.0 0.0 0.0
14:35 10.7 3.9 63 1031.6 3.1 N 6.0 0.0 0.0
14:36 10.6 3.9 63 1031.5 3.1 NW 6.0 0.0 0.0
14:37 10.6 3.9 63 1031.5 3.1 NW 6.0 0.0 0.0
14:38 10.5 3.8 63 1031.5 3.1 NE 6.0 0.0 0.0
14:39 10.5 3.8 63 1031.5 2.2 NE 4.5 0.0 0.0
14:40 10.4 3.7 63 1031.6 3.1 N 4.5 0.0 0.0
14:41 10.3 3.6 63 1031.5 5.4 NW 5.4 0.0 0.0
14:42 10.3 3.6 63 1031.6 3.8 NW 5.4 0.0 0.0
14:43 10.2 3.2 62 1031.6 4.5 NW 5.4 0.0 0.0
14:44 10.2 3.2 62 1031.6 2.2 N 5.4 0.0 0.0
14:45 10.1 3.2 62 1031.5 2.2 N 5.4 0.0 0.0
14:46 10.0 3.1 62 1031.5 1.6 NW 5.4 0.0 0.0
14:48 9.9 3.0 62 1031.5 2.2 N 5.4 0.0 0.0
14:49 9.9 3.0 62 1031.5 2.2 NW 5.4 0.0 0.0
14:50 9.8 2.9 62 1031.4 2.2 NW 5.4 0.0 0.0
14:51 9.8 2.9 62 1031.5 2.2 N 5.4 0.0 0.0
14:52 9.8 2.9 62 1031.5 2.2 N 4.5 0.0 0.0
14:53 9.7 2.8 62 1031.4 1.6 NW 4.5 0.0 0.0
14:54 9.6 2.7 62 1031.5 3.1 NW 3.8 0.0 0.0
14:55 9.6 2.9 63 1031.3 3.8 N 3.8 0.0 0.0
14:56 9.6 2.9 63 1031.3 3.1 E 3.8 0.0 0.0
14:57 9.5 2.8 63 1031.5 3.1 NW 3.8 0.0 0.0
14:58 9.5 2.8 63 1031.4 3.1 NE 3.8 0.0 0.0
14:59 9.5 2.8 63 1031.4 0.7 N 3.8 0.0 0.0
15:00 9.4 2.7 63 1031.5 1.6 N 3.8 0.0 0.0
15:01 9.4 2.7 63 1031.5 1.6 N 3.8 0.0 0.0
15:02 9.4 2.7 63 1031.6 0.7 NW 3.8 0.0 0.0
15:04 9.3 2.6 63 1031.6 2.2 N 3.8 0.0 0.0
15:05 9.3 2.6 63 1031.7 3.1 NW 3.1 0.0 0.0
15:06 9.3 2.6 63 1031.8 1.6 N 3.1 0.0 0.0
15:07 9.2 2.5 63 1031.7 3.1 NW 3.1 0.0 0.0
15:08 9.2 2.5 63 1031.7 3.1 NW 3.1 0.0 0.0
15:09 9.2 2.5 63 1031.6 3.8 N 3.8 0.0 0.0
15:10 9.1 2.4 63 1031.6 3.1 NW 3.8 0.0 0.0
15:11 9.1 2.4 63 1031.6 3.8 N 3.8 0.0 0.0
15:12 9.1 2.4 63 1031.7 3.1 NW 3.8 0.0 0.0
15:13 9.0 2.3 63 1031.7 2.2 N 3.8 0.0 0.0
15:14 9.0 2.3 63 1031.6 1.6 N 3.8 0.0 0.0
15:15 8.9 2.2 63 1031.6 3.1 NW 3.8 0.0 0.0
15:16 8.9 2.2 63 1031.7 3.1 NW 3.8 0.0 0.0
15:18 8.8 2.1 63 1031.5 2.2 N 3.8 0.0 0.0
15:19 8.8 2.1 63 1031.7 2.2 NW 3.8 0.0 0.0
15:20 8.8 2.1 63 1031.7 2.2 N 3.8 0.0 0.0
15:21 8.7 2.1 63 1031.6 1.6 N 3.1 0.0 0.0
15:22 8.7 2.1 63 1031.7 0.7 N 3.1 0.0 0.0
15:23 8.7 2.1 63 1031.7 1.6 N 3.1 0.0 0.0
15:24 8.7 2.1 63 1031.7 1.6 N 3.1 0.0 0.0
15:25 8.6 2.0 63 1031.6 2.2 N 3.1 0.0 0.0
15:26 8.6 2.0 63 1031.7 1.6 NE 3.1 0.0 0.0
15:27 8.6 2.0 63 1031.7 2.2 N 3.1 0.0 0.0
15:28 8.6 2.0 63 1031.7 3.1 N 3.1 0.0 0.0
15:29 8.5 1.9 63 1031.7 2.2 NE 3.1 0.0 0.0
15:30 8.5 1.9 63 1031.6 2.2 NE 3.1 0.0 0.0
15:32 8.5 1.9 63 1031.7 0.7 W 3.1 0.0 0.0
15:33 8.5 1.9 63 1031.6 1.6 N 3.1 0.0 0.0
15:34 8.4 2.0 64 1031.7 0.7 N 3.1 0.0 0.0
15:35 8.4 2.0 64 1031.7 0.7 NW 3.1 0.0 0.0
15:36 8.4 2.0 64 1031.7 0.7 NW 3.1 0.0 0.0
15:37 8.4 2.0 64 1031.7 0.7 N 3.1 0.0 0.0
15:38 8.3 1.9 64 1031.6 2.2 N 2.2 0.0 0.0
15:39 8.3 1.9 64 1031.6 1.6 NE 2.2 0.0 0.0
15:40 8.3 1.9 64 1031.7 2.2 NE 2.2 0.0 0.0
15:41 8.3 1.9 64 1031.7 3.1 N 3.1 0.0 0.0
15:42 8.3 1.9 64 1031.7 2.2 NW 3.1 0.0 0.0
15:43 8.3 1.9 64 1031.7 3.1 N 3.1 0.0 0.0
15:44 8.3 1.9 64 1031.7 2.2 N 3.1 0.0 0.0
15:46 8.2 1.8 64 1031.7 2.2 N 3.1 0.0 0.0
15:47 8.2 1.8 64 1031.7 2.2 NE 3.1 0.0 0.0
15:48 8.2 1.8 64 1031.7 2.2 NE 3.1 0.0 0.0
15:49 8.2 1.8 64 1031.7 1.6 N 3.1 0.0 0.0
15:50 8.2 1.8 64 1031.6 1.6 N 3.1 0.0 0.0
15:51 8.2 1.8 64 1031.6 1.6 N 3.1 0.0 0.0
15:52 8.1 1.7 64 1031.6 1.6 N 3.1 0.0 0.0
15:53 8.1 1.7 64 1031.7 2.2 N 3.1 0.0 0.0
15:54 8.1 1.9 65 1031.7 3.1 NE 3.1 0.0 0.0
15:55 8.1 1.9 65 1031.7 2.2 NE 3.1 0.0 0.0
15:56 8.1 1.9 65 1031.7 2.2 N 3.1 0.0 0.0
15:57 8.0 1.8 65 1031.7 2.2 N 3.1 0.0 0.0
15:58 8.0 1.8 65 1031.7 1.6 N 3.1 0.0 0.0
16:00 8.0 1.8 65 1031.7 2.2 N 3.1 0.0 0.0
16:01 8.0 1.8 65 1031.7 2.2 N 3.1 0.0 0.0
16:02 7.9 1.7 65 1031.7 1.6 NE 3.1 0.0 0.0
16:03 7.9 1.7 65 1031.6 1.6 N 3.1 0.0 0.0
16:04 7.9 1.7 65 1031.6 1.6 N 3.1 0.0 0.0
16:05 7.8 1.6 65 1031.6 1.6 N 2.2 0.0 0.0
16:06 7.8 1.6 65 1031.6 0.0 N 2.2 0.0 0.0
16:07 7.8 1.6 65 1031.6 0.0 N 2.2 0.0 0.0
16:08 7.8 1.6 65 1031.6 0.7 N 2.2 0.0 0.0
16:09 7.8 1.6 65 1031.5 0.0 N 2.2 0.0 0.0
16:10 7.8 1.6 65 1031.7 0.7 NW 2.2 0.0 0.0
16:11 7.8 1.6 65 1031.7 1.6 N 2.2 0.0 0.0
16:12 7.8 1.6 65 1031.7 0.7 N 2.2 0.0 0.0
16:14 7.8 1.6 65 1031.9 1.6 NE 1.6 0.0 0.0
16:15 7.8 1.6 65 1031.8 2.2 N 2.2 0.0 0.0
16:16 7.8 1.6 65 1031.7 1.6 NE 2.2 0.0 0.0
16:17 7.8 1.6 65 1031.9 1.6 NE 2.2 0.0 0.0
16:18 7.8 1.6 65 1031.8 2.2 N 2.2 0.0 0.0
16:19 7.8 1.8 66 1031.7 2.2 N 2.2 0.0 0.0
16:20 7.8 1.8 66 1031.8 3.1 NE 3.1 0.0 0.0
16:21 7.7 1.8 66 1031.7 2.2 NE 3.1 0.0 0.0
16:22 7.7 1.8 66 1031.7 2.2 NE 3.1 0.0 0.0
16:23 7.7 1.8 66 1031.7 3.1 NE 3.1 0.0 0.0
16:24 7.7 1.5 65 1031.7 3.1 N 3.1 0.0 0.0
16:25 7.6 1.7 66 1031.7 3.1 NE 3.1 0.0 0.0
16:26 7.6 1.7 66 1031.6 3.1 NE 3.1 0.0 0.0
16:27 7.5 1.6 66 1031.7 2.2 N 3.1 0.0 0.0
16:29 7.5 1.6 66 1031.6 2.2 N 3.1 0.0 0.0
16:30 7.5 1.6 66 1031.5 2.2 N 3.1 0.0 0.0
16:31 7.4 1.5 66 1031.6 2.2 NE 3.1 0.0 0.0
16:32 7.4 1.5 66 1031.7 2.2 NE 3.1 0.0 0.0
16:33 7.3 1.4 66 1031.7 2.2 NE 3.1 0.0 0.0
16:34 7.3 1.4 66 1031.6 3.1 N 3.1 0.0 0.0
16:35 7.3 1.4 66 1031.8 2.2 NE 3.1 0.0 0.0
16:36 7.2 1.3 66 1031.7 3.1 N 3.1 0.0 0.0
16:37 7.2 1.3 66 1031.5 3.1 NE 3.1 0.0 0.0
16:38 7.2 1.3 66 1031.6 2.2 N 3.1 0.0 0.0
16:39 7.1 1.2 66 1031.6 3.1 NE 3.1 0.0 0.0
16:40 7.1 1.2 66 1031.6 3.1 N 3.1 0.0 0.0
16:41 7.1 1.2 66 1031.6 3.1 N 3.1 0.0 0.0
16:43 7.0 1.1 66 1031.6 3.1 NE 3.8 0.0 0.0
16:44 7.0 1.1 66 1031.5 3.1 NE 3.8 0.0 0.0
16:45 6.9 1.0 66 1031.6 3.1 NE 3.8 0.0 0.0
16:46 6.9 1.0 66 1031.6 3.1 NE 3.8 0.0 0.0
16:47 6.9 1.0 66 1031.7 3.1 N 3.8 0.0 0.0
16:48 6.8 0.9 66 1031.6 2.2 NE 3.8 0.0 0.0
16:49 6.8 0.9 66 1031.7 2.2 NE 3.8 0.0 0.0
16:50 6.8 0.9 66 1031.7 1.6 NE 3.8 0.0 0.0
16:51 6.7 0.8 66 1031.6 2.2 N 3.8 0.0 0.0
16:52 6.7 0.8 66 1031.8 2.2 NE 3.8 0.0 0.0
16:53 6.7 0.8 66 1031.7 1.6 NE 3.8 0.0 0.0
16:54 6.6 0.7 66 1031.7 1.6 NE 3.1 0.0 0.0
16:55 6.6 0.7 66 1031.8 1.6 NE 3.1 0.0 0.0
16:56 6.6 0.9 67 1031.7 1.6 NE 3.1 0.0 0.0
16:58 6.5 0.6 66 1031.7 2.2 NE 2.2 0.0 0.0
16:59 6.5 0.8 67 1031.8 0.7 N 2.2 0.0 0.0
17:00 6.5 0.8 67 1031.7 0.7 N 2.2 0.0 0.0
17:01 6.5 0.8 67 1031.8 0.7 N 2.2 0.0 0.0
17:02 6.5 0.8 67 1031.7 0.7 N 2.2 0.0 0.0
17:03 6.5 0.8 67 1031.7 0.7 N 2.2 0.0 0.0
17:04 6.5 0.8 67 1031.6 0.7 N 2.2 0.0 0.0
17:05 6.5 0.8 67 1031.6 0.7 N 2.2 0.0 0.0
17:06 6.3 0.6 67 1031.7 0.0 NE 2.2 0.0 0.0
17:07 6.3 0.6 67 1031.8 0.0 NE 2.2 0.0 0.0
17:08 6.2 0.5 67 1031.8 0.0 NE 2.2 0.0 0.0
17:09 6.2 0.5 67 1031.7 0.0 NE 0.7 0.0 0.0
17:10 6.1 0.4 67 1031.7 0.0 NE 0.7 0.0 0.0
17:12 6.0 0.3 67 1031.7 0.0 NE 0.7 0.0 0.0
17:13 6.0 0.3 67 1031.5 0.0 NE 0.7 0.0 0.0
17:14 5.9 0.2 67 1031.6 0.0 NE 0.7 0.0 0.0
17:15 5.9 0.2 67 1031.7 0.0 NE 0.7 0.0 0.0
17:16 5.9 0.2 67 1031.7 2.2 NE 2.2 0.0 0.0
17:17 5.8 0.2 67 1031.7 2.2 NE 2.2 0.0 0.0
17:18 5.8 0.2 67 1031.7 2.2 NE 2.2 0.0 0.0
17:19 5.8 0.2 67 1031.7 2.2 NE 2.2 0.0 0.0
17:20 5.7 0.1 67 1031.8 2.2 NE 2.2 0.0 0.0
17:21 5.7 0.1 67 1031.8 0.7 N 2.2 0.0 0.0
17:22 5.6 0.0 67 1031.8 0.7 N 2.2 0.0 0.0
17:23 5.6 0.0 67 1031.7 0.7 NW 2.2 0.0 0.0
17:24 5.6 0.0 67 1031.7 1.6 NW 2.2 0.0 0.0
17:26 5.5 -0.1 67 1031.7 1.6 N 2.2 0.0 0.0
17:27 5.5 0.1 68 1031.7 1.6 N 2.2 0.0 0.0
17:28 5.5 0.1 68 1031.7 1.6 N 2.2 0.0 0.0
17:29 5.4 0.0 68 1031.7 2.2 NE 2.2 0.0 0.0
17:30 5.4 0.0 68 1031.7 0.7 NE 2.2 0.0 0.0
17:31 5.4 0.0 68 1031.8 0.0 NE 2.2 0.0 0.0
17:32 5.4 0.0 68 1031.7 0.0 NE 2.2 0.0 0.0
17:33 5.3 -0.1 68 1031.7 0.0 NE 2.2 0.0 0.0
17:34 5.3 -0.1 68 1031.8 0.0 NE 2.2 0.0 0.0
17:35 5.3 -0.1 68 1031.7 0.0 NE 2.2 0.0 0.0
17:36 5.3 -0.1 68 1031.8 0.0 NE 2.2 0.0 0.0
17:37 5.2 -0.2 68 1031.7 0.0 NE 2.2 0.0 0.0
17:38 5.2 -0.2 68 1031.8 0.0 NE 2.2 0.0 0.0
17:40 5.1 -0.3 68 1031.8 2.2 N 2.2 0.0 0.0
17:41 5.1 -0.3 68 1031.7 1.6 N 2.2 0.0 0.0
17:42 5.1 -0.3 68 1031.8 1.6 NE 2.2 0.0 0.0
17:43 5.0 -0.4 68 1031.7 1.6 N 2.2 0.0 0.0
17:44 5.0 -0.4 68 1031.7 1.6 N 2.2 0.0 0.0
17:45 5.0 -0.4 68 1031.7 1.6 N 2.2 0.0 0.0
17:46 5.0 -0.2 69 1031.7 1.6 N 2.2 0.0 0.0
17:47 5.0 -0.2 69 1031.8 1.6 N 2.2 0.0 0.0
17:48 5.0 -0.2 69 1031.7 1.6 NE 2.2 0.0 0.0
17:49 4.9 -0.3 69 1031.7 1.6 NW 2.2 0.0 0.0
17:50 4.9 -0.3 69 1031.8 1.6 NE 2.2 0.0 0.0
17:51 4.9 -0.3 69 1031.7 1.6 N 2.2 0.0 0.0
17:52 4.8 -0.4 69 1031.7 1.6 NW 2.2 0.0 0.0
17:54 4.9 -0.3 69 1031.8 1.6 NE 2.2 0.0 0.0
17:55 4.8 -0.4 69 1031.9 1.6 N 2.2 0.0 0.0
17:56 4.8 -0.2 70 1031.8 1.6 NE 2.2 0.0 0.0
17:57 4.8 -0.2 70 1031.9 1.6 N 2.2 0.0 0.0
17:58 4.8 -0.2 70 1031.8 1.6 NE 2.2 0.0 0.0
17:59 4.8 -0.2 70 1031.9 2.2 N 2.2 0.0 0.0
18:00 4.7 -0.3 70 1031.9 2.2 N 2.2 0.0 0.0
18:01 4.7 -0.3 70 1031.8 2.2 N 2.2 0.0 0.0
18:02 4.7 -0.3 70 1031.8 2.2 N 2.2 0.0 0.0
18:03 4.7 -0.3 70 1031.9 2.2 N 2.2 0.0 0.0
18:04 4.7 -0.3 70 1031.8 2.2 N 2.2 0.0 0.0
18:05 4.7 -0.3 70 1031.9 2.2 N 2.2 0.0 0.0
18:06 4.7 -0.3 70 1031.9 2.2 N 2.2 0.0 0.0
18:07 4.7 -0.3 70 1031.9 2.2 N 2.2 0.0 0.0
18:09 4.6 -0.4 70 1031.9 2.2 N 2.2 0.0 0.0
18:10 4.6 -0.4 70 1031.8 2.2 NE 2.2 0.0 0.0
18:11 4.6 -0.4 70 1031.8 2.2 NW 2.2 0.0 0.0
18:12 4.6 -0.4 70 1031.8 2.2 NNE 2.2 0.0 0.0
18:13 4.6 -0.4 70 1031.7 2.2 N 2.2 0.0 0.0
18:14 4.5 -0.5 70 1032.0 2.2 NW 2.2 0.0 0.0
18:15 4.5 -0.5 70 1031.7 3.1 NE 3.1 0.0 0.0
18:16 4.5 -0.5 70 1031.9 2.2 NE 3.1 0.0 0.0
18:17 4.5 -0.5 70 1031.9 2.2 NW 3.1 0.0 0.0
18:18 4.5 -0.5 70 1032.0 2.2 NE 3.1 0.0 0.0
18:19 4.5 -0.3 71 1031.9 2.2 N 3.1 0.0 0.0
18:20 4.4 -0.6 70 1032.0 2.2 N 3.1 0.0 0.0
18:21 4.5 -0.3 71 1032.1 1.6 N 3.1 0.0 0.0
18:22 4.5 -0.3 71 1032.0 1.6 N 3.1 0.0 0.0
18:24 4.4 -0.4 71 1031.8 3.1 NE 3.1 0.0 0.0
18:25 4.4 -0.4 71 1031.8 3.1 NE 3.1 0.0 0.0
18:26 4.4 -0.4 71 1031.7 3.1 NE 3.1 0.0 0.0
18:27 4.4 -0.4 71 1031.7 3.8 NE 3.8 0.0 0.0
18:28 4.4 -0.4 71 1031.7 3.8 NE 3.8 0.0 0.0
18:29 4.4 -0.4 71 1031.8 3.1 NE 3.8 0.0 0.0
18:30 4.4 -0.4 71 1031.7 2.2 N 3.8 0.0 0.0
18:31 4.4 -0.4 71 1031.8 3.1 NNE 3.8 0.0 0.0
18:32 4.3 -0.5 71 1031.7 3.1 N 3.8 0.0 0.0
18:33 4.4 -0.4 71 1031.8 3.1 N 3.8 0.0 0.0
18:34 4.3 -0.5 71 1031.7 3.1 N 3.8 0.0 0.0
18:35 4.4 -0.4 71 1031.9 2.2 NW 3.8 0.0 0.0
18:36 4.4 -0.4 71 1031.8 3.8 N 3.8 0.0 0.0
18:37 4.3 -0.5 71 1031.8 4.5 N 4.5 0.0 0.0
18:39 4.3 -0.5 71 1031.9 3.1 NW 4.5 0.0 0.0
18:40 4.4 -0.4 71 1031.9 4.5 NE 4.5 0.0 0.0
18:41 4.3 -0.5 71 1031.9 3.1 NW 4.5 0.0 0.0
18:42 4.4 -0.2 72 1031.9 3.1 N 4.5 0.0 0.0
18:43 4.4 -0.2 72 1031.9 3.1 N 4.5 0.0 0.0
18:44 4.4 -0.2 72 1032.0 3.1 N 4.5 0.0 0.0
18:45 4.4 -0.2 72 1031.9 3.1 NE 4.5 0.0 0.0
18:46 4.4 -0.2 72 1031.9 3.1 NE 4.5 0.0 0.0
18:47 4.4 -0.2 72 1032.0 3.1 ENE 4.5 0.0 0.0
18:48 4.4 -0.2 72 1032.0 3.1 NE 4.5 0.0 0.0
18:49 4.4 -0.2 72 1031.9 3.1 N 4.5 0.0 0.0
18:50 4.4 -0.2 72 1031.9 2.2 NE 4.5 0.0 0.0
18:51 4.4 -0.2 72 1031.8 2.2 NE 3.1 0.0 0.0
18:53 4.4 -0.2 72 1031.8 2.2 NE 3.1 0.0 0.0
18:54 4.4 -0.2 72 1032.0 2.2 N 3.1 0.0 0.0
18:55 4.4 -0.2 72 1031.8 2.2 NE 3.1 0.0 0.0
18:56 4.4 -0.2 72 1032.0 2.2 NE 3.1 0.0 0.0
18:57 4.4 -0.2 72 1031.7 2.2 NE 3.1 0.0 0.0
18:58 4.4 -0.2 72 1031.7 2.2 NE 3.1 0.0 0.0
18:59 4.4 -0.2 72 1031.7 2.2 NE 2.2 0.0 0.0
19:00 4.4 -0.2 72 1031.7 2.2 NE 2.2 0.0 0.0
19:01 4.4 -0.2 72 1031.8 2.2 NE 2.2 0.0 0.0
19:02 4.4 -0.2 72 1031.9 2.2 NE 2.2 0.0 0.0
19:03 4.4 -0.2 72 1031.6 2.2 NE 2.2 0.0 0.0
19:04 4.4 -0.2 72 1031.8 2.2 NE 2.2 0.0 0.0
19:05 4.4 -0.2 72 1031.7 2.2 NE 2.2 0.0 0.0
19:06 4.4 -0.2 72 1031.7 2.2 NE 2.2 0.0 0.0
19:07 4.4 -0.2 72 1031.8 2.2 NE 2.2 0.0 0.0
19:09 4.5 -0.1 72 1031.7 1.6 NE 2.2 0.0 0.0
19:10 4.5 -0.1 72 1031.7 2.2 NE 2.2 0.0 0.0
19:11 4.5 -0.1 72 1031.8 3.1 NE 3.1 0.0 0.0
19:12 4.4 -0.2 72 1031.8 3.1 N 3.1 0.0 0.0
19:13 4.5 -0.1 72 1031.7 3.1 NE 3.1 0.0 0.0
19:14 4.5 -0.1 72 1031.9 3.1 NE 3.1 0.0 0.0
19:15 4.5 -0.1 72 1031.9 3.1 N 3.1 0.0 0.0
19:16 4.5 -0.1 72 1031.9 3.1 NE 3.1 0.0 0.0
19:17 4.4 -0.2 72 1031.7 2.2 N 3.1 0.0 0.0
19:18 4.5 -0.1 72 1031.8 2.2 N 3.1 0.0 0.0
19:19 4.5 -0.1 72 1031.9 1.6 NE 3.1 0.0 0.0
19:20 4.5 -0.1 72 1031.9 2.2 N 3.1 0.0 0.0
19:21 4.5 -0.1 72 1031.8 2.2 NE 3.1 0.0 0.0
19:23 4.4 0.0 73 1031.9 2.2 NE 3.1 0.0 0.0
19:24 4.4 -0.2 72 1031.8 3.1 NE 3.1 0.0 0.0
19:25 4.4 -0.2 72 1031.9 3.1 NE 3.1 0.0 0.0
19:26 4.4 -0.2 72 1032.0 2.2 NE 3.1 0.0 0.0
19:27 4.4 -0.2 72 1032.0 2.2 NE 3.1 0.0 0.0
19:28 4.4 -0.2 72 1032.0 2.2 NE 3.1 0.0 0.0
19:29 4.4 -0.2 72 1031.9 2.2 NE 3.1 0.0 0.0
19:30 4.4 -0.2 72 1032.1 3.1 NE 3.1 0.0 0.0
19:31 4.4 -0.2 72 1032.1 3.1 NE 3.1 0.0 0.0
19:32 4.3 -0.3 72 1032.1 3.1 NE 3.1 0.0 0.0
19:33 4.3 -0.3 72 1031.9 3.1 NE 3.1 0.0 0.0
19:34 4.3 -0.3 72 1032.0 2.2 NE 3.1 0.0 0.0
19:35 4.3 -0.3 72 1032.0 2.2 N 3.1 0.0 0.0
19:36 4.3 -0.3 72 1032.0 2.2 NE 3.1 0.0 0.0
19:37 4.3 -0.3 72 1032.0 3.1 NE 3.1 0.0 0.0
19:39 4.2 -0.4 72 1031.9 2.2 N 3.1 0.0 0.0
19:40 4.2 -0.4 72 1032.0 2.2 NE 3.1 0.0 0.0
19:41 4.2 -0.4 72 1032.0 2.2 NE 3.1 0.0 0.0
19:42 4.2 -0.4 72 1032.1 1.6 N 3.1 0.0 0.0
19:43 4.2 -0.4 72 1031.9 1.6 NE 3.1 0.0 0.0
19:44 4.2 -0.2 73 1031.9 1.6 NE 3.1 0.0 0.0
19:45 4.1 -0.5 72 1031.8 0.0 NE 3.1 0.0 0.0
19:46 4.1 -0.5 72 1031.7 0.0 NE 3.1 0.0 0.0
19:47 4.1 -0.5 72 1031.7 0.0 NE 3.1 0.0 0.0
19:48 4.1 -0.5 72 1031.7 0.0 NE 2.2 0.0 0.0
19:49 4.0 -0.6 72 1031.9 0.0 NE 2.2 0.0 0.0
19:50 4.0 -0.6 72 1031.8 2.2 NE 2.2 0.0 0.0
19:51 3.9 -0.7 72 1031.8 2.2 NE 2.2 0.0 0.0
19:53 3.8 -0.8 72 1031.9 2.2 NE 2.2 0.0 0.0
19:54 3.8 -0.8 72 1031.9 1.6 NE 2.2 0.0 0.0
19:55 3.8 -0.8 72 1031.9 0.7 NE 2.2 0.0 0.0
19:56 3.7 -0.9 72 1031.8 0.0 NE 2.2 0.0 0.0
19:57 3.7 -0.9 72 1031.8 0.0 NE 2.2 0.0 0.0
19:58 3.6 -1.0 72 1031.7 0.0 NE 2.2 0.0 0.0
19:59 3.6 -1.0 72 1031.8 0.0 NE 2.2 0.0 0.0
20:00 3.6 -1.0 72 1031.7 0.0 NE 2.2 0.0 0.0
20:01 3.6 -1.0 72 1031.8 0.0 NE 2.2 0.0 0.0
20:02 3.6 -1.0 72 1031.7 0.0 NE 2.2 0.0 0.0
20:03 3.6 -1.0 72 1031.7 0.0 NE 2.2 0.0 0.0
20:04 3.6 -1.0 72 1031.7 0.0 NE 1.6 0.0 0.0
20:05 3.6 -1.0 72 1031.8 0.0 NE 0.7 0.0 0.0
20:06 3.6 -1.0 72 1031.9 0.0 NE 0.0 0.0 0.0
20:08 3.2 -1.4 72 1031.8 0.0 N 0.0 0.0 0.0
20:09 3.2 -1.4 72 1031.7 0.0 N 0.0 0.0 0.0
20:10 3.2 -1.4 72 1031.8 1.6 NE 1.6 0.0 0.0
20:11 3.1 -1.5 72 1031.6 2.2 N 2.2 0.0 0.0
20:12 3.1 -1.5 72 1031.6 2.2 N 2.2 0.0 0.0
20:13 3.1 -1.5 72 1031.7 2.2 N 3.1 0.0 0.0
20:14 3.1 -1.3 73 1031.7 2.2 NNE 3.1 0.0 0.0
20:15 3.1 -1.3 73 1031.7 2.2 NE 3.1 0.0 0.0
20:16 3.1 -1.3 73 1031.7 2.2 NE 3.1 0.0 0.0
20:17 3.1 -1.3 73 1031.8 2.2 NE 3.1 0.0 0.0
20:18 3.1 -1.3 73 1031.6 2.2 NE 3.1 0.0 0.0
20:19 3.2 -1.2 73 1031.7 2.2 NE 3.1 0.0 0.0
20:20 3.2 -1.2 73 1031.8 2.2 NE 3.1 0.0 0.0
20:22 3.2 -1.0 74 1031.8 2.2 NE 3.1 0.0 0.0
20:23 3.2 -1.0 74 1031.7 2.2 NNE 2.2 0.0 0.0
20:24 3.2 -1.0 74 1031.7 3.1 NE 3.1 0.0 0.0
20:25 3.1 -1.1 74 1031.7 2.2 NE 3.1 0.0 0.0
20:26 3.1 -1.1 74 1031.7 2.2 N 3.1 0.0 0.0
20:27 3.2 -1.0 74 1031.7 1.6 NE 3.1 0.0 0.0
20:28 3.1 -1.1 74 1031.7 1.6 NE 3.1 0.0 0.0
20:29 3.1 -1.1 74 1031.7 1.6 NE 3.1 0.0 0.0
20:30 3.0 -1.2 74 1031.7 1.6 NE 3.1 0.0 0.0
20:31 3.0 -1.2 74 1031.9 1.6 NE 3.1 0.0 0.0
20:32 3.0 -1.2 74 1031.9 2.2 NE 3.1 0.0 0.0
20:33 2.9 -1.3 74 1031.8 2.2 NE 3.1 0.0 0.0
20:34 2.9 -1.3 74 1031.7 2.2 NE 3.1 0.0 0.0
20:35 2.9 -1.3 74 1031.7 2.2 NE 2.2 0.0 0.0
20:37 2.9 -1.3 74 1031.8 0.7 N 2.2 0.0 0.0
20:38 2.8 -1.4 74 1031.5 0.0 N 2.2 0.0 0.0
20:39 2.8 -1.4 74 1031.7 0.0 N 2.2 0.0 0.0
20:40 2.8 -1.4 74 1031.7 0.0 N 2.2 0.0 0.0
20:41 2.8 -1.4 74 1031.7 0.0 N 2.2 0.0 0.0
20:42 2.7 -1.5 74 1031.6 0.0 N 2.2 0.0 0.0
20:43 2.7 -1.5 74 1031.7 0.0 N 2.2 0.0 0.0
20:44 2.7 -1.5 74 1031.6 0.0 N 2.2 0.0 0.0
20:45 2.7 -1.5 74 1031.8 0.0 N 2.2 0.0 0.0
20:46 2.6 -1.6 74 1031.6 0.7 N 1.6 0.0 0.0
20:47 2.6 -1.6 74 1031.5 0.7 N 0.7 0.0 0.0
20:48 2.6 -1.6 74 1031.7 0.0 N 0.7 0.0 0.0
20:49 2.6 -1.6 74 1031.7 1.6 N 1.6 0.0 0.0
20:51 2.5 -1.7 74 1031.6 0.0 N 1.6 0.0 0.0
20:52 2.5 -1.7 74 1031.5 0.0 N 1.6 0.0 0.0
20:53 2.5 -1.7 74 1031.6 0.7 N 1.6 0.0 0.0
20:54 2.5 -1.7 74 1031.6 0.7 N 1.6 0.0 0.0
20:55 2.5 -1.7 74 1031.6 1.6 NE 1.6 0.0 0.0
20:56 2.5 -1.7 74 1031.7 2.2 NE 2.2 0.0 0.0
20:57 2.5 -1.7 74 1031.6 2.2 N 2.2 0.0 0.0
20:58 2.5 -1.7 74 1031.7 2.2 NNE 2.2 0.0 0.0
20:59 2.5 -1.7 74 1031.7 3.1 N 3.1 0.0 0.0
21:00 2.5 -1.7 74 1031.6 3.1 NE 3.1 0.0 0.0
21:01 2.5 -1.7 74 1031.7 3.1 NE 3.1 0.0 0.0
21:02 2.5 -1.7 74 1031.6 3.1 NE 3.1 0.0 0.0
21:03 2.5 -1.7 74 1031.7 3.1 NE 3.1 0.0 0.0
21:04 2.5 -1.7 74 1031.6 3.1 NE 3.1 0.0 0.0
21:06 2.6 -1.4 75 1031.6 1.6 NE 3.1 0.0 0.0
21:07 2.6 -1.4 75 1031.5 0.0 NE 3.1 0.0 0.0
21:08 2.6 -1.4 75 1031.7 0.0 NE 3.1 0.0 0.0
21:09 2.6 -1.4 75 1031.6 0.0 NE 3.1 0.0 0.0
21:10 2.6 -1.4 75 1031.7 0.0 NE 3.1 0.0 0.0
21:11 2.5 -1.5 75 1031.7 0.0 NE 3.1 0.0 0.0
21:12 2.5 -1.5 75 1031.6 0.0 NE 3.1 0.0 0.0
21:13 2.5 -1.5 75 1031.7 0.0 NE 3.1 0.0 0.0
21:14 2.5 -1.5 75 1031.6 0.0 NE 3.1 0.0 0.0
21:15 2.4 -1.6 75 1031.6 0.0 NE 1.6 0.0 0.0
21:16 2.4 -1.6 75 1031.6 0.0 NE 1.6 0.0 0.0
21:17 2.4 -1.6 75 1031.7 0.0 NE 0.0 0.0 0.0
21:18 2.4 -1.6 75 1031.7 0.0 NE 0.0 0.0 0.0
21:19 2.4 -1.6 75 1031.7 0.0 NE 0.0 0.0 0.0
21:21 2.3 -1.7 75 1031.7 0.0 NE 0.0 0.0 0.0
21:22 2.3 -1.7 75 1031.5 0.0 NE 0.0 0.0 0.0
21:23 2.3 -1.7 75 1031.6 0.0 NE 0.0 0.0 0.0
21:24 2.3 -1.7 75 1031.7 0.0 NE 0.0 0.0 0.0
21:25 2.3 -1.7 75 1031.6 0.0 NE 0.0 0.0 0.0
21:26 2.3 -1.7 75 1031.7 0.0 NE 0.0 0.0 0.0
21:27 2.3 -1.7 75 1031.6 0.0 NE 0.0 0.0 0.0
21:28 2.3 -1.7 75 1031.6 0.0 NE 0.0 0.0 0.0
21:29 2.3 -1.7 75 1031.4 0.0 NE 0.0 0.0 0.0
21:30 2.2 -1.8 75 1031.6 0.0 NE 0.0 0.0 0.0
21:31 2.2 -1.8 75 1031.5 0.0 NE 0.0 0.0 0.0
21:32 2.2 -1.8 75 1031.5 0.0 NE 0.0 0.0 0.0
21:33 2.2 -1.8 75 1031.5 0.0 NE 0.0 0.0 0.0
21:34 2.3 -1.5 76 1031.5 0.0 NE 0.0 0.0 0.0
21:36 2.3 -1.5 76 1031.3 0.0 NE 0.0 0.0 0.0
21:37 2.2 -1.6 76 1031.5 0.0 NE 0.0 0.0 0.0
21:38 2.3 -1.5 76 1031.4 0.0 NE 0.0 0.0 0.0
21:39 2.3 -1.5 76 1031.4 0.0 NE 0.0 0.0 0.0
21:40 2.3 -1.5 76 1031.4 0.0 NE 0.0 0.0 0.0
21:41 2.2 -1.6 76 1031.4 0.0 NE 0.0 0.0 0.0
21:42 2.2 -1.6 76 1031.4 0.0 NE 0.0 0.0 0.0
21:43 2.2 -1.6 76 1031.5 0.0 NE 0.0 0.0 0.0
21:44 2.2 -1.6 76 1031.4 0.0 NE 0.0 0.0 0.0
21:45 2.1 -1.7 76 1031.6 0.0 NE 0.0 0.0 0.0
21:46 2.1 -1.7 76 1031.3 0.0 NE 0.0 0.0 0.0
21:47 2.1 -1.7 76 1031.5 0.0 NE 0.0 0.0 0.0
21:48 2.1 -1.7 76 1031.4 0.0 NE 0.0 0.0 0.0
21:50 2.1 -1.7 76 1031.3 0.0 NE 0.0 0.0 0.0
21:51 2.1 -1.7 76 1031.3 0.0 NE 0.0 0.0 0.0
21:52 2.1 -1.7 76 1031.2 0.0 NE 0.0 0.0 0.0
21:53 2.1 -1.7 76 1031.2 0.0 NE 0.0 0.0 0.0
21:54 2.1 -1.7 76 1031.3 0.0 NE 0.0 0.0 0.0
21:55 2.1 -1.7 76 1031.3 0.0 NE 0.0 0.0 0.0
21:56 2.1 -1.7 76 1031.3 0.0 NE 0.0 0.0 0.0
21:57 2.1 -1.7 76 1031.2 0.0 NE 0.0 0.0 0.0
21:58 2.1 -1.7 76 1031.1 0.0 NE 0.0 0.0 0.0
21:59 2.1 -1.7 76 1031.2 0.0 NE 0.0 0.0 0.0
22:00 2.1 -1.7 76 1031.3 0.0 NE 0.0 0.0 0.0
22:01 2.1 -1.7 76 1031.2 0.0 NE 0.0 0.0 0.0
22:02 2.1 -1.7 76 1031.3 0.0 NE 0.0 0.0 0.0
22:03 2.1 -1.7 76 1031.2 0.0 NE 0.0 0.0 0.0
22:04 2.1 -1.7 76 1031.1 0.0 NE 0.0 0.0 0.0
22:06 2.1 -1.5 77 1031.3 0.0 NE 0.0 0.0 0.0
22:07 2.1 -1.5 77 1031.1 0.0 NE 0.0 0.0 0.0
22:08 2.0 -1.6 77 1031.1 0.0 NE 0.0 0.0 0.0
22:09 2.0 -1.6 77 1031.2 0.0 NE 0.0 0.0 0.0
22:10 2.0 -1.6 77 1031.2 0.0 NE 0.0 0.0 0.0
22:11 2.0 -1.6 77 1031.3 0.7 NE 0.7 0.0 0.0
22:12 2.0 -1.6 77 1031.2 0.0 NE 0.7 0.0 0.0
22:13 2.0 -1.6 77 1031.1 0.7 NE 0.7 0.0 0.0
22:14 2.0 -1.6 77 1031.2 1.6 NE 1.6 0.0 0.0
22:15 2.0 -1.6 77 1031.2 1.6 NE 1.6 0.0 0.0
22:16 1.9 -1.7 77 1031.1 0.7 NE 1.6 0.0 0.0
22:17 1.9 -1.7 77 1031.2 0.0 NE 1.6 0.0 0.0
22:18 1.9 -1.7 77 1031.2 0.0 NE 1.6 0.0 0.0
22:20 1.8 -1.8 77 1031.4 0.0 NE 1.6 0.0 0.0
22:21 1.8 -1.8 77 1031.4 0.0 NE 1.6 0.0 0.0
22:22 1.8 -1.8 77 1031.3 0.7 NE 1.6 0.0 0.0
22:23 1.8 -1.8 77 1031.2 3.1 NE 3.1 0.0 0.0
22:24 1.7 -1.9 77 1031.3 3.1 NE 3.1 0.0 0.0
22:25 1.7 -1.9 77 1031.2 2.2 NE 3.1 0.0 0.0
22:26 1.7 -1.9 77 1031.2 1.6 N 3.1 0.0 0.0
22:27 1.7 -1.9 77 1031.4 0.7 N 3.1 0.0 0.0
22:28 1.7 -1.9 77 1031.2 0.7 N 3.1 0.0 0.0
22:29 1.7 -1.9 77 1031.4 0.0 N 3.1 0.0 0.0
22:30 1.7 -1.9 77 1031.3 0.0 N 3.1 0.0 0.0
22:31 1.6 -2.0 77 1031.2 0.0 N 3.1 0.0 0.0
22:32 1.6 -2.0 77 1031.2 0.0 N 3.1 0.0 0.0
22:33 1.6 -2.0 77 1031.2 0.0 N 3.1 0.0 0.0
22:35 1.5 -2.1 77 1031.1 0.0 N 2.2 0.0 0.0
22:36 1.6 -2.0 77 1031.3 0.0 N 0.7 0.0 0.0
22:37 1.6 -2.0 77 1031.3 0.0 N 0.7 0.0 0.0
22:38 1.6 -2.0 77 1031.1 0.0 N 0.7 0.0 0.0
22:39 1.6 -2.0 77 1031.2 0.0 N 0.7 0.0 0.0
22:40 1.6 -2.0 77 1031.1 0.0 N 0.7 0.0 0.0
22:41 1.6 -2.0 77 1031.2 0.0 N 0.7 0.0 0.0
22:42 1.6 -2.0 77 1031.2 0.0 N 0.7 0.0 0.0
22:43 1.6 -2.0 77 1031.2 0.0 N 0.7 0.0 0.0
22:44 1.6 -2.0 77 1031.1 0.0 N 0.7 0.0 0.0
22:45 1.6 -2.0 77 1031.1 0.0 N 0.0 0.0 0.0
22:46 1.6 -2.0 77 1031.1 0.0 N 0.0 0.0 0.0
22:47 1.6 -2.0 77 1031.2 0.0 N 0.0 0.0 0.0
22:49 1.6 -2.0 77 1031.0 0.0 N 0.0 0.0 0.0
22:50 1.6 -2.0 77 1031.2 0.0 N 0.0 0.0 0.0
22:51 1.6 -2.0 77 1031.2 0.0 N 0.0 0.0 0.0
22:52 1.6 -2.0 77 1031.2 0.7 N 0.7 0.0 0.0
22:53 1.6 -2.0 77 1031.0 0.0 N 0.7 0.0 0.0
22:54 1.6 -2.0 77 1031.1 0.7 N 0.7 0.0 0.0
22:55 1.6 -1.8 78 1030.9 0.0 N 0.7 0.0 0.0
22:56 1.5 -1.9 78 1031.0 0.7 N 0.7 0.0 0.0
22:57 1.6 -1.8 78 1031.0 0.0 NE 0.7 0.0 0.0
22:58 1.6 -1.8 78 1031.0 1.6 NE 1.6 0.0 0.0
22:59 1.6 -1.8 78 1031.1 1.6 NE 1.6 0.0 0.0
23:00 1.6 -1.8 78 1030.9 1.6 NE 1.6 0.0 0.0
23:01 1.6 -1.8 78 1030.9 1.6 NE 1.6 0.0 0.0
23:03 1.6 -1.8 78 1031.1 1.6 NE 1.6 0.0 0.0
23:04 1.6 -1.8 78 1031.0 1.6 NE 1.6 0.0 0.0
23:05 1.6 -1.8 78 1031.2 1.6 NE 1.6 0.0 0.0
23:06 1.6 -1.8 78 1031.3 1.6 NE 1.6 0.0 0.0
23:07 1.5 -1.9 78 1031.3 0.0 NE 1.6 0.0 0.0
23:08 1.4 -2.0 78 1031.2 0.0 NE 1.6 0.0 0.0
23:09 1.4 -2.0 78 1031.2 0.0 NE 1.6 0.0 0.0
23:10 1.4 -2.0 78 1031.2 0.0 NE 1.6 0.0 0.0
23:11 1.4 -2.0 78 1031.2 0.0 NE 1.6 0.0 0.0
23:12 1.4 -2.0 78 1031.2 0.0 NE 1.6 0.0 0.0
23:13 1.4 -2.0 78 1031.2 0.0 NE 1.6 0.0 0.0
23:14 1.4 -2.0 78 1031.2 0.0 NE 1.6 0.0 0.0
23:15 1.4 -2.0 78 1031.2 0.0 NE 1.6 0.0 0.0
23:16 1.4 -2.0 78 1031.2 0.0 NE 1.6 0.0 0.0
23:17 1.4 -2.0 78 1031.2 0.0 NE 0.0 0.0 0.0
23:19 1.4 -2.0 78 1031.0 0.0 NE 0.0 0.0 0.0
23:20 1.4 -2.0 78 1031.2 0.0 NE 0.0 0.0 0.0
23:21 1.4 -2.0 78 1031.2 0.0 NE 0.0 0.0 0.0
23:22 1.4 -2.0 78 1031.2 0.0 NE 0.0 0.0 0.0
23:23 1.4 -2.0 78 1031.2 0.0 NE 0.0 0.0 0.0
23:24 1.4 -2.0 78 1031.1 0.0 NE 0.0 0.0 0.0
23:25 1.4 -2.0 78 1031.3 0.0 NE 0.0 0.0 0.0
23:26 1.4 -2.0 78 1031.2 0.0 NE 0.0 0.0 0.0
23:27 1.4 -2.0 78 1031.3 0.0 NE 0.0 0.0 0.0
23:28 1.3 -2.1 78 1031.3 0.0 NE 0.0 0.0 0.0
23:29 1.3 -2.1 78 1031.2 0.0 NE 0.0 0.0 0.0
23:30 1.3 -2.1 78 1031.4 0.7 NE 0.7 0.0 0.0
23:31 1.4 -2.0 78 1031.4 0.7 NNE 1.6 0.0 0.0
23:32 1.4 -1.8 79 1031.3 0.0 NNE 1.6 0.0 0.0
23:34 1.4 -2.0 78 1031.3 0.0 N 1.6 0.0 0.0
23:35 1.3 -2.1 78 1031.3 0.0 N 1.6 0.0 0.0
23:36 1.4 -1.8 79 1031.3 0.0 N 1.6 0.0 0.0
23:37 1.3 -1.9 79 1031.3 0.0 N 1.6 0.0 0.0
23:38 1.3 -1.9 79 1031.2 0.0 N 1.6 0.0 0.0
23:39 1.3 -1.9 79 1031.3 0.0 N 1.6 0.0 0.0
23:40 1.3 -2.1 78 1031.3 0.0 N 1.6 0.0 0.0
23:41 1.3 -1.9 79 1031.3 0.0 N 1.6 0.0 0.0
23:42 1.3 -1.9 79 1031.3 0.0 N 0.7 0.0 0.0
23:43 1.3 -1.9 79 1031.3 0.0 N 0.0 0.0 0.0
23:44 1.3 -1.9 79 1031.4 0.0 N 0.0 0.0 0.0
23:45 1.3 -1.9 79 1031.4 0.0 N 0.0 0.0 0.0
23:47 1.3 -1.9 79 1031.2 1.6 N 1.6 0.0 0.0
23:48 1.4 -1.8 79 1031.3 1.6 N 1.6 0.0 0.0
23:49 1.4 -1.8 79 1031.3 1.6 N 1.6 0.0 0.0
23:50 1.4 -1.8 79 1031.2 1.6 N 1.6 0.0 0.0
23:51 1.4 -1.8 79 1031.2 0.0 N 1.6 0.0 0.0
23:52 1.4 -1.8 79 1031.2 0.0 N 1.6 0.0 0.0
23:53 1.5 -1.7 79 1031.3 0.0 N 1.6 0.0 0.0
23:54 1.5 -1.7 79 1031.2 0.0 N 1.6 0.0 0.0
23:55 1.5 -1.7 79 1031.4 1.6 N 1.6 0.0 0.0
23:56 1.5 -1.7 79 1031.3 1.6 N 1.6 0.0 0.0
23:57 1.5 -1.7 79 1031.3 1.6 N 1.6 0.0 0.0
23:58 1.5 -1.7 79 1031.4 2.2 N 2.2 0.0 0.0
23:59 1.5 -1.7 79 1031.3 1.6 N 2.2 0.0 0.0

 

 

UK - WEATHER STATION TOPSITES - UK World Weather Websites

Copyright © Carnkie Weather 2009 - 2019.